Time,TemperatureF,DewpointF,PressureIn,WindDirection,WindDirectionDegrees,WindSpeedMPH,WindSpeedGustMPH,Humidity,HourlyPrecipIn,Conditions,Clouds,dailyrainin,SoftwareType,DateUTC
2013-03-31 00:00:00,59.2,28.5,29.98,North,0,0.0,0.0,31,0.00,,,0.00,WUHU216HW,2013-03-31 07:00:00,
2013-03-31 00:02:00,59.0,28.5,29.98,North,0,0.0,0.0,31,0.00,,,0.00,WUHU216HW,2013-03-31 07:02:00,
2013-03-31 00:04:00,59.0,28.5,29.98,North,0,0.0,0.0,31,0.00,,,0.00,WUHU216HW,2013-03-31 07:04:00,
2013-03-31 00:05:00,58.9,29.0,29.98,North,0,0.0,0.0,32,0.00,,,0.00,WUHU216HW,2013-03-31 07:05:00,
2013-03-31 00:06:00,58.9,29.0,29.98,North,0,0.0,0.0,32,0.00,,,0.00,WUHU216HW,2013-03-31 07:06:00,
2013-03-31 00:07:00,58.7,28.8,29.98,North,0,0.0,0.0,32,0.00,,,0.00,WUHU216HW,2013-03-31 07:07:00,
2013-03-31 00:09:00,58.7,28.8,29.98,North,0,0.0,0.0,32,0.00,,,0.00,WUHU216HW,2013-03-31 07:09:00,
2013-03-31 00:10:00,58.7,28.8,29.98,North,0,0.0,0.0,32,0.00,,,0.00,WUHU216HW,2013-03-31 07:10:00,
2013-03-31 00:11:00,58.7,28.8,29.98,North,0,0.0,0.0,32,0.00,,,0.00,WUHU216HW,2013-03-31 07:11:00,
2013-03-31 00:13:00,58.3,28.4,29.98,North,0,0.0,0.0,32,0.00,,,0.00,WUHU216HW,2013-03-31 07:13:00,
2013-03-31 00:14:00,58.3,28.4,29.98,North,0,0.0,0.0,32,0.00,,,0.00,WUHU216HW,2013-03-31 07:14:00,
2013-03-31 00:16:00,58.1,29.0,29.98,North,0,0.0,0.0,33,0.00,,,0.00,WUHU216HW,2013-03-31 07:16:00,
2013-03-31 00:18:00,58.0,28.2,29.98,North,0,0.0,0.0,32,0.00,,,0.00,WUHU216HW,2013-03-31 07:18:00,
2013-03-31 00:19:00,58.0,28.2,29.98,North,0,0.0,0.0,32,0.00,,,0.00,WUHU216HW,2013-03-31 07:19:00,
2013-03-31 00:22:00,58.0,28.2,29.98,North,0,0.0,0.0,32,0.00,,,0.00,WUHU216HW,2013-03-31 07:22:00,
2013-03-31 00:23:00,58.0,28.2,29.98,North,0,0.0,0.0,32,0.00,,,0.00,WUHU216HW,2013-03-31 07:23:00,
2013-03-31 00:26:00,58.0,28.9,29.98,North,0,0.0,0.0,33,0.00,,,0.00,WUHU216HW,2013-03-31 07:26:00,
2013-03-31 00:27:00,58.0,28.9,29.98,North,0,0.0,0.0,33,0.00,,,0.00,WUHU216HW,2013-03-31 07:27:00,
2013-03-31 00:28:00,57.8,28.7,29.98,North,0,0.0,0.0,33,0.00,,,0.00,WUHU216HW,2013-03-31 07:28:00,
2013-03-31 00:29:00,57.8,28.7,29.98,North,0,0.0,0.0,33,0.00,,,0.00,WUHU216HW,2013-03-31 07:29:00,
2013-03-31 00:33:00,57.6,28.5,29.98,North,0,0.0,0.0,33,0.00,,,0.00,WUHU216HW,2013-03-31 07:33:00,
2013-03-31 00:35:00,57.6,28.5,29.98,North,0,0.0,0.0,33,0.00,,,0.00,WUHU216HW,2013-03-31 07:35:00,
2013-03-31 00:38:00,57.4,28.4,29.98,North,0,0.0,0.0,33,0.00,,,0.00,WUHU216HW,2013-03-31 07:38:00,
2013-03-31 00:39:00,57.4,28.4,29.98,North,0,0.0,0.0,33,0.00,,,0.00,WUHU216HW,2013-03-31 07:39:00,
2013-03-31 00:40:00,57.4,28.4,29.98,North,0,0.0,0.0,33,0.00,,,0.00,WUHU216HW,2013-03-31 07:40:00,
2013-03-31 00:43:00,57.4,28.4,29.98,North,0,0.0,0.0,33,0.00,,,0.00,WUHU216HW,2013-03-31 07:43:00,
2013-03-31 00:44:00,57.4,28.4,29.98,North,0,0.0,0.0,33,0.00,,,0.00,WUHU216HW,2013-03-31 07:44:00,
2013-03-31 00:45:00,57.2,28.2,29.98,North,0,0.0,0.0,33,0.00,,,0.00,WUHU216HW,2013-03-31 07:45:00,
2013-03-31 00:49:00,57.2,28.2,29.98,North,0,0.0,0.0,33,0.00,,,0.00,WUHU216HW,2013-03-31 07:49:00,
2013-03-31 00:50:00,57.2,28.2,29.98,North,0,0.0,0.0,33,0.00,,,0.00,WUHU216HW,2013-03-31 07:50:00,
2013-03-31 00:52:00,57.2,28.2,29.98,North,0,0.0,0.0,33,0.00,,,0.00,WUHU216HW,2013-03-31 07:52:00,
2013-03-31 00:55:00,57.2,28.2,29.98,North,0,0.0,0.0,33,0.00,,,0.00,WUHU216HW,2013-03-31 07:55:00,
2013-03-31 00:57:00,57.2,28.9,29.98,North,0,0.0,0.0,34,0.00,,,0.00,WUHU216HW,2013-03-31 07:57:00,
2013-03-31 00:58:00,57.2,28.9,29.98,North,0,0.0,0.0,34,0.00,,,0.00,WUHU216HW,2013-03-31 07:58:00,
2013-03-31 01:01:00,57.2,28.9,29.98,North,0,0.0,0.0,34,0.00,,,0.00,WUHU216HW,2013-03-31 08:01:00,
2013-03-31 01:03:00,57.2,28.9,29.98,North,0,0.0,0.0,34,0.00,,,0.00,WUHU216HW,2013-03-31 08:03:00,
2013-03-31 01:04:00,57.1,28.7,29.98,North,0,0.0,0.0,34,0.00,,,0.00,WUHU216HW,2013-03-31 08:04:00,
2013-03-31 01:06:00,57.1,28.7,29.98,North,0,0.0,0.0,34,0.00,,,0.00,WUHU216HW,2013-03-31 08:06:00,
2013-03-31 01:08:00,57.1,28.7,29.98,North,0,0.0,0.0,34,0.00,,,0.00,WUHU216HW,2013-03-31 08:08:00,
2013-03-31 01:09:00,57.1,28.7,29.98,North,0,0.0,0.0,34,0.00,,,0.00,WUHU216HW,2013-03-31 08:09:00,
2013-03-31 01:11:00,56.9,28.6,29.98,North,0,0.0,0.0,34,0.00,,,0.00,WUHU216HW,2013-03-31 08:11:00,
2013-03-31 01:14:00,56.9,28.6,29.98,North,0,0.0,0.0,34,0.00,,,0.00,WUHU216HW,2013-03-31 08:14:00,
2013-03-31 01:16:00,56.9,28.6,29.98,North,0,0.0,0.0,34,0.00,,,0.00,WUHU216HW,2013-03-31 08:16:00,
2013-03-31 01:19:00,56.9,28.6,29.98,North,0,0.0,0.0,34,0.00,,,0.00,WUHU216HW,2013-03-31 08:19:00,
2013-03-31 01:21:00,56.7,28.5,29.98,North,0,0.0,0.0,34,0.00,,,0.00,WUHU216HW,2013-03-31 08:21:00,
2013-03-31 01:24:00,56.7,28.5,29.97,North,0,0.0,0.0,34,0.00,,,0.00,WUHU216HW,2013-03-31 08:24:00,
2013-03-31 01:25:00,56.7,28.5,29.97,North,0,0.0,0.0,34,0.00,,,0.00,WUHU216HW,2013-03-31 08:25:00,
2013-03-31 01:28:00,56.5,29.0,29.98,North,0,0.0,0.0,35,0.00,,,0.00,WUHU216HW,2013-03-31 08:28:00,
2013-03-31 01:30:00,56.5,29.0,29.98,North,0,0.0,0.0,35,0.00,,,0.00,WUHU216HW,2013-03-31 08:30:00,
2013-03-31 01:33:00,56.5,29.0,29.98,North,0,0.0,0.0,35,0.00,,,0.00,WUHU216HW,2013-03-31 08:33:00,
2013-03-31 01:34:00,56.5,29.0,29.98,North,0,0.0,0.0,35,0.00,,,0.00,WUHU216HW,2013-03-31 08:34:00,
2013-03-31 01:35:00,56.5,29.0,29.98,North,0,0.0,0.0,35,0.00,,,0.00,WUHU216HW,2013-03-31 08:35:00,
2013-03-31 01:37:00,56.5,29.0,29.98,North,0,0.0,0.0,35,0.00,,,0.00,WUHU216HW,2013-03-31 08:37:00,
2013-03-31 01:39:00,56.5,29.7,29.98,North,0,0.0,0.0,36,0.00,,,0.00,WUHU216HW,2013-03-31 08:39:00,
2013-03-31 01:42:00,56.3,29.5,29.98,North,0,0.0,0.0,36,0.00,,,0.00,WUHU216HW,2013-03-31 08:42:00,
2013-03-31 01:43:00,56.3,29.5,29.98,North,0,0.0,0.0,36,0.00,,,0.00,WUHU216HW,2013-03-31 08:43:00,
2013-03-31 01:44:00,56.3,29.5,29.98,North,0,0.0,0.0,36,0.00,,,0.00,WUHU216HW,2013-03-31 08:44:00,
2013-03-31 01:47:00,56.2,29.3,29.98,North,0,0.0,0.0,36,0.00,,,0.00,WUHU216HW,2013-03-31 08:47:00,
2013-03-31 01:48:00,56.2,29.3,29.97,North,0,0.0,0.0,36,0.00,,,0.00,WUHU216HW,2013-03-31 08:48:00,
2013-03-31 01:49:00,56.0,29.2,29.97,North,0,0.0,0.0,36,0.00,,,0.00,WUHU216HW,2013-03-31 08:49:00,
2013-03-31 01:50:00,56.2,29.3,29.98,North,0,0.0,0.0,36,0.00,,,0.00,WUHU216HW,2013-03-31 08:50:00,
2013-03-31 01:52:00,56.0,29.2,29.97,North,0,0.0,0.0,36,0.00,,,0.00,WUHU216HW,2013-03-31 08:52:00,
2013-03-31 01:54:00,55.8,29.0,29.98,North,0,0.0,0.0,36,0.00,,,0.00,WUHU216HW,2013-03-31 08:54:00,
2013-03-31 01:55:00,55.8,29.7,29.97,North,0,0.0,0.0,37,0.00,,,0.00,WUHU216HW,2013-03-31 08:55:00,
2013-03-31 01:57:00,55.4,29.4,29.97,North,0,0.0,0.0,37,0.00,,,0.00,WUHU216HW,2013-03-31 08:57:00,
2013-03-31 02:00:00,55.3,29.3,29.97,North,0,0.0,0.0,37,0.00,,,0.00,WUHU216HW,2013-03-31 09:00:00,
2013-03-31 02:03:00,55.1,29.1,29.97,North,0,0.0,0.0,37,0.00,,,0.00,WUHU216HW,2013-03-31 09:03:00,
2013-03-31 02:05:00,54.9,29.6,29.97,North,0,0.0,0.0,38,0.00,,,0.00,WUHU216HW,2013-03-31 09:05:00,
2013-03-31 02:07:00,54.7,28.8,29.97,North,0,0.0,0.0,37,0.00,,,0.00,WUHU216HW,2013-03-31 09:07:00,
2013-03-31 02:08:00,54.5,28.6,29.97,North,0,0.0,0.0,37,0.00,,,0.00,WUHU216HW,2013-03-31 09:08:00,
2013-03-31 02:10:00,54.4,28.4,29.97,North,0,0.0,0.0,37,0.00,,,0.00,WUHU216HW,2013-03-31 09:10:00,
2013-03-31 02:12:00,54.4,28.4,29.97,North,0,0.0,0.0,37,0.00,,,0.00,WUHU216HW,2013-03-31 09:12:00,
2013-03-31 02:13:00,54.4,28.4,29.97,North,0,0.0,0.0,37,0.00,,,0.00,WUHU216HW,2013-03-31 09:13:00,
2013-03-31 02:15:00,54.2,29.0,29.97,North,0,0.0,0.0,38,0.00,,,0.00,WUHU216HW,2013-03-31 09:15:00,
2013-03-31 02:16:00,54.2,28.3,29.97,North,0,0.0,0.0,37,0.00,,,0.00,WUHU216HW,2013-03-31 09:16:00,
2013-03-31 02:18:00,54.2,29.0,29.97,North,0,0.0,0.0,38,0.00,,,0.00,WUHU216HW,2013-03-31 09:18:00,
2013-03-31 02:20:00,54.0,28.8,29.97,North,0,0.0,0.0,38,0.00,,,0.00,WUHU216HW,2013-03-31 09:20:00,
2013-03-31 02:23:00,54.0,28.8,29.97,North,0,0.0,0.0,38,0.00,,,0.00,WUHU216HW,2013-03-31 09:23:00,
2013-03-31 02:24:00,54.0,28.8,29.97,North,0,0.0,0.0,38,0.00,,,0.00,WUHU216HW,2013-03-31 09:24:00,
2013-03-31 02:25:00,54.0,28.8,29.97,North,0,0.0,0.0,38,0.00,,,0.00,WUHU216HW,2013-03-31 09:25:00,
2013-03-31 02:26:00,54.0,28.8,29.97,North,0,0.0,0.0,38,0.00,,,0.00,WUHU216HW,2013-03-31 09:26:00,
2013-03-31 02:28:00,53.8,28.7,29.97,North,0,0.0,0.0,38,0.00,,,0.00,WUHU216HW,2013-03-31 09:28:00,
2013-03-31 02:29:00,53.8,28.7,29.97,North,0,0.0,0.0,38,0.00,,,0.00,WUHU216HW,2013-03-31 09:29:00,
2013-03-31 02:30:00,53.8,28.7,29.97,North,0,0.0,0.0,38,0.00,,,0.00,WUHU216HW,2013-03-31 09:30:00,
2013-03-31 02:32:00,53.8,29.3,29.97,North,0,0.0,0.0,39,0.00,,,0.00,WUHU216HW,2013-03-31 09:32:00,
2013-03-31 02:34:00,53.6,29.2,29.97,North,0,0.0,0.0,39,0.00,,,0.00,WUHU216HW,2013-03-31 09:34:00,
2013-03-31 02:35:00,53.6,29.2,29.97,North,0,0.0,0.0,39,0.00,,,0.00,WUHU216HW,2013-03-31 09:35:00,
2013-03-31 02:36:00,53.6,29.2,29.97,North,0,0.0,0.0,39,0.00,,,0.00,WUHU216HW,2013-03-31 09:36:00,
2013-03-31 02:37:00,53.6,29.2,29.97,North,0,0.0,0.0,39,0.00,,,0.00,WUHU216HW,2013-03-31 09:37:00,
2013-03-31 02:40:00,53.5,29.1,29.97,North,0,0.0,0.0,39,0.00,,,0.00,WUHU216HW,2013-03-31 09:40:00,
2013-03-31 02:41:00,53.5,29.1,29.97,North,0,0.0,0.0,39,0.00,,,0.00,WUHU216HW,2013-03-31 09:41:00,
2013-03-31 02:42:00,53.5,29.7,29.97,North,0,0.0,0.0,40,0.00,,,0.00,WUHU216HW,2013-03-31 09:42:00,
2013-03-31 02:44:00,53.3,28.9,29.97,North,0,0.0,0.0,39,0.00,,,0.00,WUHU216HW,2013-03-31 09:44:00,
2013-03-31 02:46:00,53.3,28.9,29.97,North,0,0.0,0.0,39,0.00,,,0.00,WUHU216HW,2013-03-31 09:46:00,
2013-03-31 02:47:00,53.3,28.9,29.97,North,0,0.0,0.0,39,0.00,,,0.00,WUHU216HW,2013-03-31 09:47:00,
2013-03-31 02:49:00,53.3,28.9,29.97,North,0,0.0,0.0,39,0.00,,,0.00,WUHU216HW,2013-03-31 09:49:00,
2013-03-31 02:51:00,53.3,28.9,29.97,North,0,0.0,0.0,39,0.00,,,0.00,WUHU216HW,2013-03-31 09:51:00,
2013-03-31 02:52:00,53.3,28.9,29.97,North,0,0.0,0.0,39,0.00,,,0.00,WUHU216HW,2013-03-31 09:52:00,
2013-03-31 02:54:00,53.1,28.7,29.97,North,0,0.0,0.0,39,0.00,,,0.00,WUHU216HW,2013-03-31 09:54:00,
2013-03-31 02:55:00,53.1,28.7,29.97,North,0,0.0,0.0,39,0.00,,,0.00,WUHU216HW,2013-03-31 09:55:00,
2013-03-31 02:56:00,53.1,29.4,29.97,North,0,0.0,0.0,40,0.00,,,0.00,WUHU216HW,2013-03-31 09:56:00,
2013-03-31 02:59:00,53.1,28.7,29.97,North,0,0.0,0.0,39,0.00,,,0.00,WUHU216HW,2013-03-31 09:59:00,
2013-03-31 03:00:00,53.1,28.7,29.97,North,0,0.0,0.0,39,0.00,,,0.00,WUHU216HW,2013-03-31 10:00:00,
2013-03-31 03:02:00,52.9,28.5,29.97,North,0,0.0,0.0,39,0.00,,,0.00,WUHU216HW,2013-03-31 10:02:00,
2013-03-31 03:04:00,52.9,28.5,29.97,North,0,0.0,0.0,39,0.00,,,0.00,WUHU216HW,2013-03-31 10:04:00,
2013-03-31 03:05:00,52.9,28.5,29.97,North,0,0.0,0.0,39,0.00,,,0.00,WUHU216HW,2013-03-31 10:05:00,
2013-03-31 03:06:00,52.9,28.5,29.97,North,0,0.0,0.0,39,0.00,,,0.00,WUHU216HW,2013-03-31 10:06:00,
2013-03-31 03:09:00,52.9,28.5,29.97,North,0,0.0,0.0,39,0.00,,,0.00,WUHU216HW,2013-03-31 10:09:00,
2013-03-31 03:11:00,52.9,28.5,29.97,North,0,0.0,0.0,39,0.00,,,0.00,WUHU216HW,2013-03-31 10:11:00,
2013-03-31 03:14:00,52.9,28.5,29.97,North,0,0.0,0.0,39,0.00,,,0.00,WUHU216HW,2013-03-31 10:14:00,
2013-03-31 03:15:00,52.9,28.5,29.97,North,0,0.0,0.0,39,0.00,,,0.00,WUHU216HW,2013-03-31 10:15:00,
2013-03-31 03:17:00,52.7,28.4,29.97,North,0,0.0,0.0,39,0.00,,,0.00,WUHU216HW,2013-03-31 10:17:00,
2013-03-31 03:19:00,52.6,28.3,29.97,North,0,0.0,0.0,39,0.00,,,0.00,WUHU216HW,2013-03-31 10:19:00,
2013-03-31 03:20:00,52.6,28.3,29.97,North,0,0.0,0.0,39,0.00,,,0.00,WUHU216HW,2013-03-31 10:20:00,
2013-03-31 03:22:00,52.6,28.3,29.96,North,0,0.0,0.0,39,0.00,,,0.00,WUHU216HW,2013-03-31 10:22:00,
2013-03-31 03:24:00,52.4,28.1,29.96,North,0,0.0,0.0,39,0.00,,,0.00,WUHU216HW,2013-03-31 10:24:00,
2013-03-31 03:25:00,52.4,28.1,29.96,North,0,0.0,0.0,39,0.00,,,0.00,WUHU216HW,2013-03-31 10:25:00,
2013-03-31 03:26:00,52.4,28.1,29.96,North,0,0.0,0.0,39,0.00,,,0.00,WUHU216HW,2013-03-31 10:26:00,
2013-03-31 03:28:00,52.2,28.6,29.96,North,0,0.0,0.0,40,0.00,,,0.00,WUHU216HW,2013-03-31 10:28:00,
2013-03-31 03:29:00,52.2,28.6,29.96,North,0,0.0,0.0,40,0.00,,,0.00,WUHU216HW,2013-03-31 10:29:00,
2013-03-31 03:30:00,52.2,28.6,29.96,North,0,0.0,0.0,40,0.00,,,0.00,WUHU216HW,2013-03-31 10:30:00,
2013-03-31 03:33:00,52.0,28.5,29.96,North,0,0.0,0.0,40,0.00,,,0.00,WUHU216HW,2013-03-31 10:33:00,
2013-03-31 03:35:00,51.8,28.3,29.97,North,0,0.0,0.0,40,0.00,,,0.00,WUHU216HW,2013-03-31 10:35:00,
2013-03-31 03:38:00,51.7,28.6,29.97,North,0,0.0,0.0,41,0.00,,,0.00,WUHU216HW,2013-03-31 10:38:00,
2013-03-31 03:40:00,51.7,28.6,29.97,North,0,0.0,0.0,41,0.00,,,0.00,WUHU216HW,2013-03-31 10:40:00,
2013-03-31 03:43:00,51.5,28.5,29.97,North,0,0.0,0.0,41,0.00,,,0.00,WUHU216HW,2013-03-31 10:43:00,
2013-03-31 03:44:00,51.5,28.5,29.97,North,0,0.0,0.0,41,0.00,,,0.00,WUHU216HW,2013-03-31 10:44:00,
2013-03-31 03:45:00,51.5,29.1,29.97,North,0,0.0,0.0,42,0.00,,,0.00,WUHU216HW,2013-03-31 10:45:00,
2013-03-31 03:47:00,51.5,29.6,29.97,North,0,0.0,0.0,43,0.00,,,0.00,WUHU216HW,2013-03-31 10:47:00,
2013-03-31 03:48:00,51.3,28.9,29.97,North,0,0.0,0.0,42,0.00,,,0.00,WUHU216HW,2013-03-31 10:48:00,
2013-03-31 03:50:00,51.3,28.9,29.97,North,0,0.0,0.0,42,0.00,,,0.00,WUHU216HW,2013-03-31 10:50:00,
2013-03-31 03:52:00,51.5,29.1,29.97,North,0,0.0,0.0,42,0.00,,,0.00,WUHU216HW,2013-03-31 10:52:00,
2013-03-31 03:53:00,51.3,28.9,29.97,North,0,0.0,0.0,42,0.00,,,0.00,WUHU216HW,2013-03-31 10:53:00,
2013-03-31 03:55:00,51.3,28.9,29.97,North,0,0.0,0.0,42,0.00,,,0.00,WUHU216HW,2013-03-31 10:55:00,
2013-03-31 03:56:00,51.3,28.9,29.97,North,0,0.0,0.0,42,0.00,,,0.00,WUHU216HW,2013-03-31 10:56:00,
2013-03-31 03:58:00,51.3,28.9,29.97,North,0,0.0,0.0,42,0.00,,,0.00,WUHU216HW,2013-03-31 10:58:00,
2013-03-31 03:59:00,51.3,28.9,29.97,North,0,0.0,0.0,42,0.00,,,0.00,WUHU216HW,2013-03-31 10:59:00,
2013-03-31 04:01:00,51.3,28.9,29.97,North,0,0.0,0.0,42,0.00,,,0.00,WUHU216HW,2013-03-31 11:01:00,
2013-03-31 04:02:00,51.3,28.9,29.97,North,0,0.0,0.0,42,0.00,,,0.00,WUHU216HW,2013-03-31 11:02:00,
2013-03-31 04:04:00,51.3,28.9,29.97,North,0,0.0,0.0,42,0.00,,,0.00,WUHU216HW,2013-03-31 11:04:00,
2013-03-31 04:07:00,51.1,29.3,29.97,North,0,0.0,0.0,43,0.00,,,0.00,WUHU216HW,2013-03-31 11:07:00,
2013-03-31 04:08:00,51.1,29.3,29.97,North,0,0.0,0.0,43,0.00,,,0.00,WUHU216HW,2013-03-31 11:08:00,
2013-03-31 04:09:00,51.1,29.3,29.97,North,0,0.0,0.0,43,0.00,,,0.00,WUHU216HW,2013-03-31 11:09:00,
2013-03-31 04:10:00,51.1,28.7,29.97,North,0,0.0,0.0,42,0.00,,,0.00,WUHU216HW,2013-03-31 11:10:00,
2013-03-31 04:13:00,51.1,29.3,29.97,North,0,0.0,0.0,43,0.00,,,0.00,WUHU216HW,2013-03-31 11:13:00,
2013-03-31 04:15:00,51.1,28.7,29.97,North,0,0.0,0.0,42,0.00,,,0.00,WUHU216HW,2013-03-31 11:15:00,
2013-03-31 04:18:00,51.1,28.7,29.97,North,0,0.0,0.0,42,0.00,,,0.00,WUHU216HW,2013-03-31 11:18:00,
2013-03-31 04:19:00,51.1,28.7,29.97,North,0,0.0,0.0,42,0.00,,,0.00,WUHU216HW,2013-03-31 11:19:00,
2013-03-31 04:20:00,50.9,28.5,29.97,North,0,0.0,0.0,42,0.00,,,0.00,WUHU216HW,2013-03-31 11:20:00,
2013-03-31 04:24:00,51.1,28.7,29.97,North,0,0.0,0.0,42,0.00,,,0.00,WUHU216HW,2013-03-31 11:24:00,
2013-03-31 04:25:00,51.1,28.7,29.97,North,0,0.0,0.0,42,0.00,,,0.00,WUHU216HW,2013-03-31 11:25:00,
2013-03-31 04:29:00,50.9,28.5,29.97,North,0,0.0,0.0,42,0.00,,,0.00,WUHU216HW,2013-03-31 11:29:00,
2013-03-31 04:31:00,50.9,28.5,29.97,North,0,0.0,0.0,42,0.00,,,0.00,WUHU216HW,2013-03-31 11:31:00,
2013-03-31 04:33:00,50.9,29.2,29.97,North,0,0.0,0.0,43,0.00,,,0.00,WUHU216HW,2013-03-31 11:33:00,
2013-03-31 04:35:00,50.8,28.5,29.98,North,0,0.0,0.0,42,0.00,,,0.00,WUHU216HW,2013-03-31 11:35:00,
2013-03-31 04:36:00,50.8,28.5,29.97,North,0,0.0,0.0,42,0.00,,,0.00,WUHU216HW,2013-03-31 11:36:00,
2013-03-31 04:38:00,50.8,28.5,29.97,North,0,0.0,0.0,42,0.00,,,0.00,WUHU216HW,2013-03-31 11:38:00,
2013-03-31 04:40:00,50.8,28.5,29.98,North,0,0.0,0.0,42,0.00,,,0.00,WUHU216HW,2013-03-31 11:40:00,
2013-03-31 04:42:00,50.8,28.5,29.98,North,0,0.0,0.0,42,0.00,,,0.00,WUHU216HW,2013-03-31 11:42:00,
2013-03-31 04:43:00,50.8,28.5,29.98,North,0,0.0,0.0,42,0.00,,,0.00,WUHU216HW,2013-03-31 11:43:00,
2013-03-31 04:45:00,50.8,28.5,29.98,North,0,0.0,0.0,42,0.00,,,0.00,WUHU216HW,2013-03-31 11:45:00,
2013-03-31 04:47:00,50.8,28.5,29.98,North,0,0.0,0.0,42,0.00,,,0.00,WUHU216HW,2013-03-31 11:47:00,
2013-03-31 04:48:00,50.8,28.5,29.98,North,0,0.0,0.0,42,0.00,,,0.00,WUHU216HW,2013-03-31 11:48:00,
2013-03-31 04:49:00,50.8,28.5,29.98,North,0,0.0,0.0,42,0.00,,,0.00,WUHU216HW,2013-03-31 11:49:00,
2013-03-31 04:52:00,50.8,28.5,29.98,North,0,0.0,0.0,42,0.00,,,0.00,WUHU216HW,2013-03-31 11:52:00,
2013-03-31 04:53:00,50.8,28.5,29.98,North,0,0.0,0.0,42,0.00,,,0.00,WUHU216HW,2013-03-31 11:53:00,
2013-03-31 04:54:00,50.6,28.3,29.98,North,0,0.0,0.0,42,0.00,,,0.00,WUHU216HW,2013-03-31 11:54:00,
2013-03-31 04:55:00,50.6,28.3,29.98,North,0,0.0,0.0,42,0.00,,,0.00,WUHU216HW,2013-03-31 11:55:00,
2013-03-31 04:57:00,50.6,28.3,29.98,North,0,0.0,0.0,42,0.00,,,0.00,WUHU216HW,2013-03-31 11:57:00,
2013-03-31 04:59:00,50.6,28.3,29.98,North,0,0.0,0.0,42,0.00,,,0.00,WUHU216HW,2013-03-31 11:59:00,
2013-03-31 05:00:00,50.6,28.3,29.98,North,0,0.0,0.0,42,0.00,,,0.00,WUHU216HW,2013-03-31 12:00:00,
2013-03-31 05:01:00,50.4,28.1,29.98,North,0,0.0,0.0,42,0.00,,,0.00,WUHU216HW,2013-03-31 12:01:00,
2013-03-31 05:04:00,50.4,28.1,29.98,North,0,0.0,0.0,42,0.00,,,0.00,WUHU216HW,2013-03-31 12:04:00,
2013-03-31 05:05:00,50.4,28.1,29.98,North,0,0.0,0.0,42,0.00,,,0.00,WUHU216HW,2013-03-31 12:05:00,
2013-03-31 05:07:00,50.2,28.4,29.98,North,0,0.0,0.0,43,0.00,,,0.00,WUHU216HW,2013-03-31 12:07:00,
2013-03-31 05:10:00,50.2,28.4,29.98,North,0,0.0,0.0,43,0.00,,,0.00,WUHU216HW,2013-03-31 12:10:00,
2013-03-31 05:11:00,50.0,28.4,29.98,North,0,0.0,0.0,43,0.00,,,0.00,WUHU216HW,2013-03-31 12:11:00,
2013-03-31 05:12:00,50.0,28.4,29.98,North,0,0.0,0.0,43,0.00,,,0.00,WUHU216HW,2013-03-31 12:12:00,
2013-03-31 05:15:00,50.0,28.4,29.98,North,0,0.0,0.0,43,0.00,,,0.00,WUHU216HW,2013-03-31 12:15:00,
2013-03-31 05:16:00,50.0,28.4,29.98,North,0,0.0,0.0,43,0.00,,,0.00,WUHU216HW,2013-03-31 12:16:00,
2013-03-31 05:17:00,50.0,28.4,29.98,North,0,0.0,0.0,43,0.00,,,0.00,WUHU216HW,2013-03-31 12:17:00,
2013-03-31 05:18:00,50.0,28.4,29.98,North,0,0.0,0.0,43,0.00,,,0.00,WUHU216HW,2013-03-31 12:18:00,
2013-03-31 05:21:00,50.0,28.4,29.98,North,0,0.0,0.0,43,0.00,,,0.00,WUHU216HW,2013-03-31 12:21:00,
2013-03-31 05:22:00,50.0,28.4,29.98,North,0,0.0,0.0,43,0.00,,,0.00,WUHU216HW,2013-03-31 12:22:00,
2013-03-31 05:23:00,50.0,28.4,29.98,North,0,0.0,0.0,43,0.00,,,0.00,WUHU216HW,2013-03-31 12:23:00,
2013-03-31 05:24:00,50.0,28.4,29.98,North,0,0.0,0.0,43,0.00,,,0.00,WUHU216HW,2013-03-31 12:24:00,
2013-03-31 05:27:00,50.0,28.4,29.98,North,0,0.0,0.0,43,0.00,,,0.00,WUHU216HW,2013-03-31 12:27:00,
2013-03-31 05:28:00,50.0,28.4,29.98,North,0,0.0,0.0,43,0.00,,,0.00,WUHU216HW,2013-03-31 12:28:00,
2013-03-31 05:29:00,50.0,28.4,29.98,North,0,0.0,0.0,43,0.00,,,0.00,WUHU216HW,2013-03-31 12:29:00,
2013-03-31 05:32:00,49.9,28.2,29.98,North,0,0.0,0.0,43,0.00,,,0.00,WUHU216HW,2013-03-31 12:32:00,
2013-03-31 05:34:00,49.9,28.2,29.99,North,0,0.0,0.0,43,0.00,,,0.00,WUHU216HW,2013-03-31 12:34:00,
2013-03-31 05:35:00,49.9,28.2,29.98,North,0,0.0,0.0,43,0.00,,,0.00,WUHU216HW,2013-03-31 12:35:00,
2013-03-31 05:38:00,49.7,28.5,29.99,North,0,0.0,0.0,44,0.00,,,0.00,WUHU216HW,2013-03-31 12:38:00,
2013-03-31 05:39:00,49.7,28.0,29.99,North,0,0.0,0.0,43,0.00,,,0.00,WUHU216HW,2013-03-31 12:39:00,
2013-03-31 05:40:00,49.7,28.0,29.99,North,0,0.0,0.0,43,0.00,,,0.00,WUHU216HW,2013-03-31 12:40:00,
2013-03-31 05:43:00,49.7,28.0,29.99,North,0,0.0,0.0,43,0.00,,,0.00,WUHU216HW,2013-03-31 12:43:00,
2013-03-31 05:45:00,49.7,28.5,29.99,North,0,0.0,0.0,44,0.00,,,0.00,WUHU216HW,2013-03-31 12:45:00,
2013-03-31 05:48:00,49.9,28.7,29.99,North,0,0.0,0.0,44,0.00,,,0.00,WUHU216HW,2013-03-31 12:48:00,
2013-03-31 05:50:00,49.9,28.7,29.99,North,0,0.0,0.0,44,0.00,,,0.00,WUHU216HW,2013-03-31 12:50:00,
2013-03-31 05:51:00,49.9,28.7,29.99,North,0,0.0,0.0,44,0.00,,,0.00,WUHU216HW,2013-03-31 12:51:00,
2013-03-31 05:53:00,49.9,28.7,29.99,North,0,0.0,0.0,44,0.00,,,0.00,WUHU216HW,2013-03-31 12:53:00,
2013-03-31 05:55:00,49.9,28.2,29.99,North,0,0.0,0.0,43,0.00,,,0.00,WUHU216HW,2013-03-31 12:55:00,
2013-03-31 05:56:00,49.9,28.2,29.99,North,0,0.0,0.0,43,0.00,,,0.00,WUHU216HW,2013-03-31 12:56:00,
2013-03-31 05:58:00,49.9,28.7,29.99,North,0,0.0,0.0,44,0.00,,,0.00,WUHU216HW,2013-03-31 12:58:00,
2013-03-31 05:59:00,49.9,28.7,29.99,North,0,0.0,0.0,44,0.00,,,0.00,WUHU216HW,2013-03-31 12:59:00,
2013-03-31 06:01:00,49.9,28.2,29.99,North,0,0.0,0.0,43,0.00,,,0.00,WUHU216HW,2013-03-31 13:01:00,
2013-03-31 06:04:00,49.7,28.0,29.99,North,0,0.0,0.0,43,0.00,,,0.00,WUHU216HW,2013-03-31 13:04:00,
2013-03-31 06:06:00,49.7,28.0,29.99,North,0,0.0,0.0,43,0.00,,,0.00,WUHU216HW,2013-03-31 13:06:00,
2013-03-31 06:07:00,49.7,28.0,29.99,North,0,0.0,0.0,43,0.00,,,0.00,WUHU216HW,2013-03-31 13:07:00,
2013-03-31 06:09:00,49.7,28.5,29.99,North,0,0.0,0.0,44,0.00,,,0.00,WUHU216HW,2013-03-31 13:09:00,
2013-03-31 06:11:00,49.7,28.5,29.99,North,0,0.0,0.0,44,0.00,,,0.00,WUHU216HW,2013-03-31 13:11:00,
2013-03-31 06:12:00,49.7,28.5,29.99,North,0,0.0,0.0,44,0.00,,,0.00,WUHU216HW,2013-03-31 13:12:00,
2013-03-31 06:15:00,49.7,28.5,29.99,North,0,0.0,0.0,44,0.00,,,0.00,WUHU216HW,2013-03-31 13:15:00,
2013-03-31 06:16:00,49.7,28.5,29.99,North,0,0.0,0.0,44,0.00,,,0.00,WUHU216HW,2013-03-31 13:16:00,
2013-03-31 06:17:00,49.7,28.5,29.99,North,0,0.0,0.0,44,0.00,,,0.00,WUHU216HW,2013-03-31 13:17:00,
2013-03-31 06:18:00,49.7,28.5,29.99,North,0,0.0,0.0,44,0.00,,,0.00,WUHU216HW,2013-03-31 13:18:00,
2013-03-31 06:20:00,49.7,28.5,29.99,North,0,0.0,0.0,44,0.00,,,0.00,WUHU216HW,2013-03-31 13:20:00,
2013-03-31 06:22:00,49.7,28.5,29.99,North,0,0.0,0.0,44,0.00,,,0.00,WUHU216HW,2013-03-31 13:22:00,
2013-03-31 06:23:00,49.7,29.1,29.99,North,0,0.0,0.0,45,0.00,,,0.00,WUHU216HW,2013-03-31 13:23:00,
2013-03-31 06:25:00,49.5,28.4,29.99,North,0,0.0,0.0,44,0.00,,,0.00,WUHU216HW,2013-03-31 13:25:00,
2013-03-31 06:27:00,49.3,28.7,29.99,North,0,0.0,0.0,45,0.00,,,0.00,WUHU216HW,2013-03-31 13:27:00,
2013-03-31 06:29:00,49.1,28.6,29.99,North,0,0.0,0.0,45,0.00,,,0.00,WUHU216HW,2013-03-31 13:29:00,
2013-03-31 06:30:00,49.0,28.5,29.99,North,0,0.0,0.0,45,0.00,,,0.00,WUHU216HW,2013-03-31 13:30:00,
2013-03-31 06:32:00,49.0,28.5,29.99,North,0,0.0,0.0,45,0.00,,,0.00,WUHU216HW,2013-03-31 13:32:00,
2013-03-31 06:34:00,48.8,28.3,29.99,North,0,0.0,0.0,45,0.00,,,0.00,WUHU216HW,2013-03-31 13:34:00,
2013-03-31 06:35:00,48.8,28.3,29.99,North,0,0.0,0.0,45,0.00,,,0.00,WUHU216HW,2013-03-31 13:35:00,
2013-03-31 06:37:00,48.8,28.3,29.99,North,0,0.0,0.0,45,0.00,,,0.00,WUHU216HW,2013-03-31 13:37:00,
2013-03-31 06:38:00,48.8,28.3,29.99,North,0,0.0,0.0,45,0.00,,,0.00,WUHU216HW,2013-03-31 13:38:00,
2013-03-31 06:39:00,48.8,28.8,29.99,North,0,0.0,0.0,46,0.00,,,0.00,WUHU216HW,2013-03-31 13:39:00,
2013-03-31 06:40:00,48.8,28.8,29.99,North,0,0.0,0.0,46,0.00,,,0.00,WUHU216HW,2013-03-31 13:40:00,
2013-03-31 06:43:00,49.0,29.0,29.99,North,0,0.0,0.0,46,0.00,,,0.00,WUHU216HW,2013-03-31 13:43:00,
2013-03-31 06:45:00,49.1,29.2,30.00,North,0,0.0,0.0,46,0.00,,,0.00,WUHU216HW,2013-03-31 13:45:00,
2013-03-31 06:47:00,49.3,29.4,29.99,North,0,0.0,0.0,46,0.00,,,0.00,WUHU216HW,2013-03-31 13:47:00,
2013-03-31 06:49:00,49.3,29.4,30.00,North,0,0.0,0.0,46,0.00,,,0.00,WUHU216HW,2013-03-31 13:49:00,
2013-03-31 06:53:00,49.7,29.6,30.00,North,0,0.0,0.0,46,0.00,,,0.00,WUHU216HW,2013-03-31 13:53:00,
2013-03-31 06:54:00,50.0,29.4,29.99,North,0,0.0,0.0,45,0.00,,,0.00,WUHU216HW,2013-03-31 13:54:00,
2013-03-31 06:55:00,50.0,29.4,30.00,North,0,0.0,0.0,45,0.00,,,0.00,WUHU216HW,2013-03-31 13:55:00,
2013-03-31 06:58:00,50.6,29.9,29.99,North,0,0.0,0.0,45,0.00,,,0.00,WUHU216HW,2013-03-31 13:58:00,
2013-03-31 06:59:00,50.8,30.1,29.99,North,0,0.0,0.0,45,0.00,,,0.00,WUHU216HW,2013-03-31 13:59:00,
2013-03-31 07:00:00,50.8,30.1,30.00,North,0,0.0,0.0,45,0.00,,,0.00,WUHU216HW,2013-03-31 14:00:00,
2013-03-31 07:03:00,51.5,30.7,30.00,North,0,0.0,0.0,45,0.00,,,0.00,WUHU216HW,2013-03-31 14:03:00,
2013-03-31 07:04:00,51.5,30.7,30.00,North,0,0.0,0.0,45,0.00,,,0.00,WUHU216HW,2013-03-31 14:04:00,
2013-03-31 07:06:00,51.7,30.3,29.99,North,0,0.0,0.0,44,0.00,,,0.00,WUHU216HW,2013-03-31 14:06:00,
2013-03-31 07:07:00,51.8,30.5,30.00,North,0,0.0,0.0,44,0.00,,,0.00,WUHU216HW,2013-03-31 14:07:00,
2013-03-31 07:08:00,52.2,30.8,30.00,North,0,0.0,0.0,44,0.00,,,0.00,WUHU216HW,2013-03-31 14:08:00,
2013-03-31 07:11:00,52.6,31.7,30.00,North,0,0.0,0.0,45,0.00,,,0.00,WUHU216HW,2013-03-31 14:11:00,
2013-03-31 07:12:00,52.6,31.7,30.00,North,0,0.0,0.0,45,0.00,,,0.00,WUHU216HW,2013-03-31 14:12:00,
2013-03-31 07:14:00,52.9,32.1,30.00,North,0,0.0,0.0,45,0.00,,,0.00,WUHU216HW,2013-03-31 14:14:00,
2013-03-31 07:16:00,52.9,31.5,30.00,North,0,0.0,0.0,44,0.00,,,0.00,WUHU216HW,2013-03-31 14:16:00,
2013-03-31 07:17:00,53.1,31.6,30.00,North,0,0.0,0.0,44,0.00,,,0.00,WUHU216HW,2013-03-31 14:17:00,
2013-03-31 07:20:00,53.6,32.1,30.00,North,0,0.0,0.0,44,0.00,,,0.00,WUHU216HW,2013-03-31 14:20:00,
2013-03-31 07:21:00,53.6,32.1,30.00,North,0,0.0,0.0,44,0.00,,,0.00,WUHU216HW,2013-03-31 14:21:00,
2013-03-31 07:23:00,53.8,32.3,30.00,North,0,0.0,0.0,44,0.00,,,0.00,WUHU216HW,2013-03-31 14:23:00,
2013-03-31 07:24:00,54.0,31.9,30.00,North,0,0.0,0.0,43,0.00,,,0.00,WUHU216HW,2013-03-31 14:24:00,
2013-03-31 07:26:00,54.4,32.2,30.00,North,0,0.0,0.0,43,0.00,,,0.00,WUHU216HW,2013-03-31 14:26:00,
2013-03-31 07:27:00,54.5,32.4,30.00,North,0,0.0,0.0,43,0.00,,,0.00,WUHU216HW,2013-03-31 14:27:00,
2013-03-31 07:28:00,54.5,32.4,30.00,North,0,0.0,0.0,43,0.00,,,0.00,WUHU216HW,2013-03-31 14:28:00,
2013-03-31 07:29:00,54.7,32.5,30.00,North,0,0.0,0.0,43,0.00,,,0.00,WUHU216HW,2013-03-31 14:29:00,
2013-03-31 07:31:00,54.7,32.0,30.00,North,0,0.0,0.0,42,0.00,,,0.00,WUHU216HW,2013-03-31 14:31:00,
2013-03-31 07:34:00,54.9,32.1,30.00,North,0,0.0,0.0,42,0.00,,,0.00,WUHU216HW,2013-03-31 14:34:00,
2013-03-31 07:36:00,54.9,32.1,30.00,North,0,0.0,0.0,42,0.00,,,0.00,WUHU216HW,2013-03-31 14:36:00,
2013-03-31 07:39:00,55.1,32.3,30.00,North,0,0.0,0.0,42,0.00,,,0.00,WUHU216HW,2013-03-31 14:39:00,
2013-03-31 07:40:00,55.1,32.3,30.00,North,0,0.0,0.0,42,0.00,,,0.00,WUHU216HW,2013-03-31 14:40:00,
2013-03-31 07:41:00,55.1,31.8,30.00,North,0,0.0,0.0,41,0.00,,,0.00,WUHU216HW,2013-03-31 14:41:00,
2013-03-31 07:42:00,55.1,31.8,30.00,North,0,0.0,0.0,41,0.00,,,0.00,WUHU216HW,2013-03-31 14:42:00,
2013-03-31 07:45:00,55.1,31.8,30.00,North,0,0.0,0.0,41,0.00,,,0.00,WUHU216HW,2013-03-31 14:45:00,
2013-03-31 07:46:00,55.3,31.9,30.00,North,0,0.0,0.0,41,0.00,,,0.00,WUHU216HW,2013-03-31 14:46:00,
2013-03-31 07:48:00,55.1,31.8,30.00,North,0,0.0,0.0,41,0.00,,,0.00,WUHU216HW,2013-03-31 14:48:00,
2013-03-31 07:50:00,55.3,31.9,30.00,North,0,0.0,0.0,41,0.00,,,0.00,WUHU216HW,2013-03-31 14:50:00,
2013-03-31 07:51:00,55.4,32.0,30.01,North,0,0.0,0.0,41,0.00,,,0.00,WUHU216HW,2013-03-31 14:51:00,
2013-03-31 07:53:00,55.4,32.0,30.00,North,0,0.0,0.0,41,0.00,,,0.00,WUHU216HW,2013-03-31 14:53:00,
2013-03-31 07:55:00,55.6,32.2,30.01,North,0,0.0,0.0,41,0.00,,,0.00,WUHU216HW,2013-03-31 14:55:00,
2013-03-31 07:57:00,55.8,32.4,30.01,North,0,0.0,0.0,41,0.00,,,0.00,WUHU216HW,2013-03-31 14:57:00,
2013-03-31 07:58:00,56.0,32.6,30.01,North,0,0.0,0.0,41,0.00,,,0.00,WUHU216HW,2013-03-31 14:58:00,
2013-03-31 07:59:00,56.2,32.1,30.01,North,0,0.0,0.0,40,0.00,,,0.00,WUHU216HW,2013-03-31 14:59:00,
2013-03-31 08:00:00,56.2,32.1,30.00,North,0,0.0,0.0,40,0.00,,,0.00,WUHU216HW,2013-03-31 15:00:00,
2013-03-31 08:02:00,56.5,32.5,30.01,North,0,0.0,0.0,40,0.00,,,0.00,WUHU216HW,2013-03-31 15:02:00,
2013-03-31 08:03:00,56.5,32.5,30.01,North,0,0.0,0.0,40,0.00,,,0.00,WUHU216HW,2013-03-31 15:03:00,
2013-03-31 08:05:00,56.7,32.7,30.01,North,0,0.0,0.0,40,0.00,,,0.00,WUHU216HW,2013-03-31 15:05:00,
2013-03-31 08:07:00,56.9,32.8,30.01,North,0,0.0,0.0,40,0.00,,,0.00,WUHU216HW,2013-03-31 15:07:00,
2013-03-31 08:08:00,56.9,32.8,30.01,North,0,0.0,0.0,40,0.00,,,0.00,WUHU216HW,2013-03-31 15:08:00,
2013-03-31 08:10:00,57.1,32.2,30.01,North,0,0.0,0.0,39,0.00,,,0.00,WUHU216HW,2013-03-31 15:10:00,
2013-03-31 08:11:00,57.1,32.9,30.01,North,0,0.0,0.0,40,0.00,,,0.00,WUHU216HW,2013-03-31 15:11:00,
2013-03-31 08:14:00,57.2,32.4,30.01,North,0,0.0,0.0,39,0.00,,,0.00,WUHU216HW,2013-03-31 15:14:00,
2013-03-31 08:15:00,57.4,32.6,30.01,North,0,0.0,0.0,39,0.00,,,0.00,WUHU216HW,2013-03-31 15:15:00,
2013-03-31 08:17:00,57.6,32.8,30.00,North,0,0.0,0.0,39,0.00,,,0.00,WUHU216HW,2013-03-31 15:17:00,
2013-03-31 08:19:00,57.8,33.0,30.00,North,0,0.0,0.0,39,0.00,,,0.00,WUHU216HW,2013-03-31 15:19:00,
2013-03-31 08:20:00,57.8,33.0,30.00,North,0,0.0,0.0,39,0.00,,,0.00,WUHU216HW,2013-03-31 15:20:00,
2013-03-31 08:22:00,58.0,33.0,30.00,North,0,0.0,0.0,39,0.00,,,0.00,WUHU216HW,2013-03-31 15:22:00,
2013-03-31 08:25:00,58.3,33.4,30.00,North,0,0.0,0.0,39,0.00,,,0.00,WUHU216HW,2013-03-31 15:25:00,
2013-03-31 08:27:00,58.7,33.8,30.00,North,0,0.0,0.0,39,0.00,,,0.00,WUHU216HW,2013-03-31 15:27:00,
2013-03-31 08:28:00,58.9,33.2,30.00,North,0,0.0,0.0,38,0.00,,,0.00,WUHU216HW,2013-03-31 15:28:00,
2013-03-31 08:30:00,59.2,33.5,30.00,North,0,0.0,0.0,38,0.00,,,0.00,WUHU216HW,2013-03-31 15:30:00,
2013-03-31 08:32:00,59.4,32.9,30.00,North,0,0.0,0.0,37,0.00,,,0.00,WUHU216HW,2013-03-31 15:32:00,
2013-03-31 08:34:00,59.4,32.9,30.00,North,0,0.0,0.0,37,0.00,,,0.00,WUHU216HW,2013-03-31 15:34:00,
2013-03-31 08:35:00,59.4,32.9,30.00,North,0,0.0,0.0,37,0.00,,,0.00,WUHU216HW,2013-03-31 15:35:00,
2013-03-31 08:36:00,59.4,32.9,30.00,North,0,0.0,0.0,37,0.00,,,0.00,WUHU216HW,2013-03-31 15:36:00,
2013-03-31 08:39:00,59.4,32.9,30.00,North,0,0.0,0.0,37,0.00,,,0.00,WUHU216HW,2013-03-31 15:39:00,
2013-03-31 08:40:00,59.6,32.4,30.00,North,0,0.0,0.0,36,0.00,,,0.00,WUHU216HW,2013-03-31 15:40:00,
2013-03-31 08:42:00,59.6,32.4,30.00,North,0,0.0,0.0,36,0.00,,,0.00,WUHU216HW,2013-03-31 15:42:00,
2013-03-31 08:44:00,59.8,32.6,30.00,North,0,0.0,0.0,36,0.00,,,0.00,WUHU216HW,2013-03-31 15:44:00,
2013-03-31 08:46:00,60.1,33.6,30.00,North,0,0.0,0.0,37,0.00,,,0.00,WUHU216HW,2013-03-31 15:46:00,
2013-03-31 08:47:00,60.1,33.6,30.00,North,0,0.0,0.0,37,0.00,,,0.00,WUHU216HW,2013-03-31 15:47:00,
2013-03-31 08:48:00,60.3,33.0,30.00,North,0,0.0,0.0,36,0.00,,,0.00,WUHU216HW,2013-03-31 15:48:00,
2013-03-31 08:50:00,60.5,33.2,30.00,North,0,0.0,0.0,36,0.00,,,0.00,WUHU216HW,2013-03-31 15:50:00,
2013-03-31 08:52:00,60.8,33.5,30.00,North,0,0.0,0.0,36,0.00,,,0.00,WUHU216HW,2013-03-31 15:52:00,
2013-03-31 08:54:00,61.0,33.7,30.00,North,0,0.0,0.0,36,0.00,,,0.00,WUHU216HW,2013-03-31 15:54:00,
2013-03-31 08:55:00,61.2,33.9,30.00,North,0,0.0,0.0,36,0.00,,,0.00,WUHU216HW,2013-03-31 15:55:00,
2013-03-31 08:57:00,61.6,32.7,30.00,North,0,0.0,0.0,34,0.00,,,0.00,WUHU216HW,2013-03-31 15:57:00,
2013-03-31 08:58:00,61.6,32.7,30.00,North,0,0.0,0.0,34,0.00,,,0.00,WUHU216HW,2013-03-31 15:58:00,
2013-03-31 08:59:00,61.7,32.9,30.00,North,0,0.0,0.0,34,0.00,,,0.00,WUHU216HW,2013-03-31 15:59:00,
2013-03-31 09:02:00,61.9,33.0,30.00,North,0,0.0,0.0,34,0.00,,,0.00,WUHU216HW,2013-03-31 16:02:00,
2013-03-31 09:03:00,62.1,33.2,30.00,North,0,0.0,0.0,34,0.00,,,0.00,WUHU216HW,2013-03-31 16:03:00,
2013-03-31 09:04:00,62.1,33.2,30.00,North,0,0.0,0.0,34,0.00,,,0.00,WUHU216HW,2013-03-31 16:04:00,
2013-03-31 09:07:00,62.5,32.8,30.00,North,0,0.0,0.0,33,0.00,,,0.00,WUHU216HW,2013-03-31 16:07:00,
2013-03-31 09:08:00,62.6,32.9,30.00,North,0,0.0,0.0,33,0.00,,,0.00,WUHU216HW,2013-03-31 16:08:00,
2013-03-31 09:09:00,62.8,33.1,30.00,North,0,0.0,0.0,33,0.00,,,0.00,WUHU216HW,2013-03-31 16:09:00,
2013-03-31 09:13:00,63.0,33.3,30.00,North,0,0.0,0.0,33,0.00,,,0.00,WUHU216HW,2013-03-31 16:13:00,
2013-03-31 09:14:00,63.2,32.7,30.00,North,0,0.0,0.0,32,0.00,,,0.00,WUHU216HW,2013-03-31 16:14:00,
2013-03-31 09:18:00,63.4,32.9,30.00,North,0,0.0,0.0,32,0.00,,,0.00,WUHU216HW,2013-03-31 16:18:00,
2013-03-31 09:20:00,63.7,33.2,30.00,North,0,0.0,0.0,32,0.00,,,0.00,WUHU216HW,2013-03-31 16:20:00,
2013-03-31 09:23:00,64.3,33.7,30.00,North,0,0.0,0.0,32,0.00,,,0.00,WUHU216HW,2013-03-31 16:23:00,
2013-03-31 09:25:00,64.4,33.8,30.00,North,0,0.0,0.0,32,0.00,,,0.00,WUHU216HW,2013-03-31 16:25:00,
2013-03-31 09:27:00,64.6,33.3,30.00,North,0,0.0,0.0,31,0.00,,,0.00,WUHU216HW,2013-03-31 16:27:00,
2013-03-31 09:28:00,64.6,33.3,30.00,North,0,0.0,0.0,31,0.00,,,0.00,WUHU216HW,2013-03-31 16:28:00,
2013-03-31 09:30:00,64.8,33.5,30.00,North,0,0.0,0.0,31,0.00,,,0.00,WUHU216HW,2013-03-31 16:30:00,
2013-03-31 09:33:00,65.0,33.6,30.00,North,0,0.0,0.0,31,0.00,,,0.00,WUHU216HW,2013-03-31 16:33:00,
2013-03-31 09:34:00,65.2,33.8,30.00,North,0,0.0,0.0,31,0.00,,,0.00,WUHU216HW,2013-03-31 16:34:00,
2013-03-31 09:36:00,65.2,33.8,30.00,North,0,0.0,0.0,31,0.00,,,0.00,WUHU216HW,2013-03-31 16:36:00,
2013-03-31 09:38:00,65.2,33.8,30.00,North,0,0.0,0.0,31,0.00,,,0.00,WUHU216HW,2013-03-31 16:38:00,
2013-03-31 09:39:00,65.2,33.8,30.00,North,0,0.0,0.0,31,0.00,,,0.00,WUHU216HW,2013-03-31 16:39:00,
2013-03-31 09:40:00,65.2,33.8,30.00,North,0,0.0,0.0,31,0.00,,,0.00,WUHU216HW,2013-03-31 16:40:00,
2013-03-31 09:42:00,65.2,33.8,30.00,North,0,0.0,0.0,31,0.00,,,0.00,WUHU216HW,2013-03-31 16:42:00,
2013-03-31 09:44:00,65.3,33.9,30.00,North,0,0.0,0.0,31,0.00,,,0.00,WUHU216HW,2013-03-31 16:44:00,
2013-03-31 09:45:00,65.5,34.1,30.00,North,0,0.0,0.0,31,0.00,,,0.00,WUHU216HW,2013-03-31 16:45:00,
2013-03-31 09:46:00,65.5,33.4,30.00,North,0,0.0,0.0,30,0.00,,,0.00,WUHU216HW,2013-03-31 16:46:00,
2013-03-31 09:47:00,65.5,34.1,29.99,North,0,0.0,0.0,31,0.00,,,0.00,WUHU216HW,2013-03-31 16:47:00,
2013-03-31 09:50:00,65.7,34.3,30.00,North,0,0.0,0.0,31,0.00,,,0.00,WUHU216HW,2013-03-31 16:50:00,
2013-03-31 09:51:00,65.7,34.3,30.00,North,0,0.0,0.0,31,0.00,,,0.00,WUHU216HW,2013-03-31 16:51:00,
2013-03-31 09:53:00,65.9,34.4,30.00,North,0,0.0,0.0,31,0.00,,,0.00,WUHU216HW,2013-03-31 16:53:00,
2013-03-31 09:55:00,66.1,34.6,30.00,North,0,0.0,0.0,31,0.00,,,0.00,WUHU216HW,2013-03-31 16:55:00,
2013-03-31 09:56:00,66.1,34.6,29.99,North,0,0.0,0.0,31,0.00,,,0.00,WUHU216HW,2013-03-31 16:56:00,
2013-03-31 09:58:00,66.2,34.7,29.99,North,0,0.0,0.0,31,0.00,,,0.00,WUHU216HW,2013-03-31 16:58:00,
2013-03-31 10:00:00,66.4,34.9,29.99,North,0,0.0,0.0,31,0.00,,,0.00,WUHU216HW,2013-03-31 17:00:00,
2013-03-31 10:02:00,66.4,34.9,29.99,North,0,0.0,0.0,31,0.00,,,0.00,WUHU216HW,2013-03-31 17:02:00,
2013-03-31 10:03:00,66.4,34.2,29.99,North,0,0.0,0.0,30,0.00,,,0.00,WUHU216HW,2013-03-31 17:03:00,
2013-03-31 10:04:00,66.6,34.3,29.99,North,0,0.0,0.0,30,0.00,,,0.00,WUHU216HW,2013-03-31 17:04:00,
2013-03-31 10:06:00,66.6,34.3,29.99,North,0,0.0,0.0,30,0.00,,,0.00,WUHU216HW,2013-03-31 17:06:00,
2013-03-31 10:07:00,66.8,35.2,29.99,North,0,0.0,0.0,31,0.00,,,0.00,WUHU216HW,2013-03-31 17:07:00,
2013-03-31 10:08:00,67.0,35.3,29.99,North,0,0.0,0.0,31,0.00,,,0.00,WUHU216HW,2013-03-31 17:08:00,
2013-03-31 10:10:00,67.1,34.7,29.99,North,0,0.0,0.0,30,0.00,,,0.00,WUHU216HW,2013-03-31 17:10:00,
2013-03-31 10:12:00,67.3,34.9,29.99,North,0,0.0,0.0,30,0.00,,,0.00,WUHU216HW,2013-03-31 17:12:00,
2013-03-31 10:13:00,67.3,34.9,29.99,North,0,0.0,0.0,30,0.00,,,0.00,WUHU216HW,2013-03-31 17:13:00,
2013-03-31 10:14:00,67.5,35.0,29.99,North,0,0.0,0.0,30,0.00,,,0.00,WUHU216HW,2013-03-31 17:14:00,
2013-03-31 10:15:00,67.5,35.0,29.99,North,0,0.0,0.0,30,0.00,,,0.00,WUHU216HW,2013-03-31 17:15:00,
2013-03-31 10:17:00,67.7,35.2,29.99,North,0,0.0,0.0,30,0.00,,,0.00,WUHU216HW,2013-03-31 17:17:00,
2013-03-31 10:18:00,67.7,35.2,29.99,North,0,0.0,0.0,30,0.00,,,0.00,WUHU216HW,2013-03-31 17:18:00,
2013-03-31 10:20:00,67.7,35.2,29.99,North,0,0.0,0.0,30,0.00,,,0.00,WUHU216HW,2013-03-31 17:20:00,
2013-03-31 10:24:00,68.2,34.7,29.99,North,0,0.0,0.0,29,0.00,,,0.00,WUHU216HW,2013-03-31 17:24:00,
2013-03-31 10:25:00,68.2,34.7,29.99,North,0,0.0,0.0,29,0.00,,,0.00,WUHU216HW,2013-03-31 17:25:00,
2013-03-31 10:26:00,68.2,34.7,29.99,North,0,0.0,0.0,29,0.00,,,0.00,WUHU216HW,2013-03-31 17:26:00,
2013-03-31 10:29:00,68.8,35.1,29.99,North,0,0.0,0.0,29,0.00,,,0.00,WUHU216HW,2013-03-31 17:29:00,
2013-03-31 10:30:00,68.8,35.1,29.99,North,0,0.0,0.0,29,0.00,,,0.00,WUHU216HW,2013-03-31 17:30:00,
2013-03-31 10:31:00,68.8,35.1,29.99,North,0,0.0,0.0,29,0.00,,,0.00,WUHU216HW,2013-03-31 17:31:00,
2013-03-31 10:34:00,68.9,34.3,29.99,North,0,0.0,0.0,28,0.00,,,0.00,WUHU216HW,2013-03-31 17:34:00,
2013-03-31 10:35:00,68.9,35.3,29.99,North,0,0.0,0.0,29,0.00,,,0.00,WUHU216HW,2013-03-31 17:35:00,
2013-03-31 10:36:00,69.1,34.5,29.99,North,0,0.0,0.0,28,0.00,,,0.00,WUHU216HW,2013-03-31 17:36:00,
2013-03-31 10:37:00,69.1,34.5,29.99,North,0,0.0,0.0,28,0.00,,,0.00,WUHU216HW,2013-03-31 17:37:00,
2013-03-31 10:40:00,69.3,35.6,29.99,North,0,0.0,0.0,29,0.00,,,0.00,WUHU216HW,2013-03-31 17:40:00,
2013-03-31 10:41:00,69.5,34.7,29.99,North,0,0.0,0.0,28,0.00,,,0.00,WUHU216HW,2013-03-31 17:41:00,
2013-03-31 10:42:00,69.5,34.7,29.99,North,0,0.0,0.0,28,0.00,,,0.00,WUHU216HW,2013-03-31 17:42:00,
2013-03-31 10:45:00,69.7,34.9,29.99,North,0,0.0,0.0,28,0.00,,,0.00,WUHU216HW,2013-03-31 17:45:00,
2013-03-31 10:47:00,69.7,34.9,29.99,North,0,0.0,0.0,28,0.00,,,0.00,WUHU216HW,2013-03-31 17:47:00,
2013-03-31 10:51:00,70.0,35.2,29.99,North,0,0.0,0.0,28,0.00,,,0.00,WUHU216HW,2013-03-31 17:51:00,
2013-03-31 10:52:00,70.2,35.4,29.99,North,0,0.0,0.0,28,0.00,,,0.00,WUHU216HW,2013-03-31 17:52:00,
2013-03-31 10:53:00,70.2,35.4,29.99,North,0,0.0,0.0,28,0.00,,,0.00,WUHU216HW,2013-03-31 17:53:00,
2013-03-31 10:58:00,70.6,33.7,29.99,North,0,0.0,0.0,26,0.00,,,0.00,WUHU216HW,2013-03-31 17:58:00,
2013-03-31 11:03:00,70.9,32.0,29.99,North,0,0.0,0.0,24,0.00,,,0.00,WUHU216HW,2013-03-31 18:03:00,
2013-03-31 11:04:00,70.9,32.0,29.98,North,0,0.0,0.0,24,0.00,,,0.00,WUHU216HW,2013-03-31 18:04:00,
2013-03-31 11:09:00,71.1,33.1,29.98,North,0,0.0,0.0,25,0.00,,,0.00,WUHU216HW,2013-03-31 18:09:00,
2013-03-31 11:10:00,71.3,33.3,29.98,North,0,0.0,0.0,25,0.00,,,0.00,WUHU216HW,2013-03-31 18:10:00,
2013-03-31 11:14:00,71.8,33.8,29.98,North,0,0.0,0.0,25,0.00,,,0.00,WUHU216HW,2013-03-31 18:14:00,
2013-03-31 11:15:00,71.8,33.8,29.98,North,0,0.0,0.0,25,0.00,,,0.00,WUHU216HW,2013-03-31 18:15:00,
2013-03-31 11:19:00,72.0,32.9,29.98,North,0,0.0,0.0,24,0.00,,,0.00,WUHU216HW,2013-03-31 18:19:00,
2013-03-31 11:20:00,72.0,33.8,29.98,North,0,0.0,0.0,25,0.00,,,0.00,WUHU216HW,2013-03-31 18:20:00,
2013-03-31 11:21:00,72.0,33.8,29.98,North,0,0.0,0.0,25,0.00,,,0.00,WUHU216HW,2013-03-31 18:21:00,
2013-03-31 11:24:00,72.0,31.9,29.98,North,0,0.0,0.0,23,0.00,,,0.00,WUHU216HW,2013-03-31 18:24:00,
2013-03-31 11:26:00,72.2,32.0,29.98,North,0,0.0,0.0,23,0.00,,,0.00,WUHU216HW,2013-03-31 18:26:00,
2013-03-31 11:29:00,72.0,32.9,29.98,North,0,0.0,0.0,24,0.00,,,0.00,WUHU216HW,2013-03-31 18:29:00,
2013-03-31 11:31:00,72.0,32.9,29.97,North,0,0.0,0.0,24,0.00,,,0.00,WUHU216HW,2013-03-31 18:31:00,
2013-03-31 11:32:00,72.0,32.9,29.97,North,0,0.0,0.0,24,0.00,,,0.00,WUHU216HW,2013-03-31 18:32:00,
2013-03-31 11:34:00,72.2,33.0,29.97,North,0,0.0,0.0,24,0.00,,,0.00,WUHU216HW,2013-03-31 18:34:00,
2013-03-31 11:36:00,72.4,33.1,29.97,North,0,0.0,0.0,24,0.00,,,0.00,WUHU216HW,2013-03-31 18:36:00,
2013-03-31 11:37:00,72.4,33.1,29.97,North,0,0.0,0.0,24,0.00,,,0.00,WUHU216HW,2013-03-31 18:37:00,
2013-03-31 11:40:00,72.7,32.5,29.97,North,0,0.0,0.0,23,0.00,,,0.00,WUHU216HW,2013-03-31 18:40:00,
2013-03-31 11:41:00,72.7,33.5,29.97,North,0,0.0,0.0,24,0.00,,,0.00,WUHU216HW,2013-03-31 18:41:00,
2013-03-31 11:42:00,72.7,33.5,29.97,North,0,0.0,0.0,24,0.00,,,0.00,WUHU216HW,2013-03-31 18:42:00,
2013-03-31 11:43:00,72.7,33.5,29.97,North,0,0.0,0.0,24,0.00,,,0.00,WUHU216HW,2013-03-31 18:43:00,
2013-03-31 11:45:00,72.9,33.7,29.97,North,0,0.0,0.0,24,0.00,,,0.00,WUHU216HW,2013-03-31 18:45:00,
2013-03-31 11:47:00,73.1,32.8,29.97,North,0,0.0,0.0,23,0.00,,,0.00,WUHU216HW,2013-03-31 18:47:00,
2013-03-31 11:48:00,73.1,32.8,29.97,North,0,0.0,0.0,23,0.00,,,0.00,WUHU216HW,2013-03-31 18:48:00,
2013-03-31 11:51:00,73.3,33.0,29.97,North,0,0.0,0.0,23,0.00,,,0.00,WUHU216HW,2013-03-31 18:51:00,
2013-03-31 11:52:00,73.3,33.0,29.96,North,0,0.0,0.0,23,0.00,,,0.00,WUHU216HW,2013-03-31 18:52:00,
2013-03-31 11:53:00,73.3,33.0,29.97,North,0,0.0,0.0,23,0.00,,,0.00,WUHU216HW,2013-03-31 18:53:00,
2013-03-31 11:57:00,73.3,33.0,29.96,North,0,0.0,0.0,23,0.00,,,0.00,WUHU216HW,2013-03-31 18:57:00,
2013-03-31 11:58:00,73.3,33.0,29.96,North,0,0.0,0.0,23,0.00,,,0.00,WUHU216HW,2013-03-31 18:58:00,
2013-03-31 12:03:00,73.4,34.1,29.96,North,0,0.0,0.0,24,0.00,,,0.00,WUHU216HW,2013-03-31 19:03:00,
2013-03-31 12:04:00,73.6,34.2,29.96,North,0,0.0,0.0,24,0.00,,,0.00,WUHU216HW,2013-03-31 19:04:00,
2013-03-31 12:05:00,73.6,34.2,29.96,North,0,0.0,0.0,24,0.00,,,0.00,WUHU216HW,2013-03-31 19:05:00,
2013-03-31 12:08:00,74.2,33.7,29.96,North,0,0.0,0.0,23,0.00,,,0.00,WUHU216HW,2013-03-31 19:08:00,
2013-03-31 12:09:00,74.0,33.6,29.96,North,0,0.0,0.0,23,0.00,,,0.00,WUHU216HW,2013-03-31 19:09:00,
2013-03-31 12:10:00,74.2,33.7,29.96,North,0,0.0,0.0,23,0.00,,,0.00,WUHU216HW,2013-03-31 19:10:00,
2013-03-31 12:14:00,74.5,34.0,29.96,North,0,0.0,0.0,23,0.00,,,0.00,WUHU216HW,2013-03-31 19:14:00,
2013-03-31 12:17:00,74.5,34.0,29.95,North,0,0.0,0.0,23,0.00,,,0.00,WUHU216HW,2013-03-31 19:17:00,
2013-03-31 12:18:00,74.5,34.0,29.95,North,0,0.0,0.0,23,0.00,,,0.00,WUHU216HW,2013-03-31 19:18:00,
2013-03-31 12:20:00,74.7,34.1,29.95,North,0,0.0,0.0,23,0.00,,,0.00,WUHU216HW,2013-03-31 19:20:00,
2013-03-31 12:22:00,74.7,34.1,29.95,North,0,0.0,0.0,23,0.00,,,0.00,WUHU216HW,2013-03-31 19:22:00,
2013-03-31 12:24:00,74.9,34.3,29.95,North,0,0.0,0.0,23,0.00,,,0.00,WUHU216HW,2013-03-31 19:24:00,
2013-03-31 12:25:00,75.1,34.5,29.95,North,0,0.0,0.0,23,0.00,,,0.00,WUHU216HW,2013-03-31 19:25:00,
2013-03-31 12:27:00,75.2,33.6,29.95,North,0,0.0,0.0,22,0.00,,,0.00,WUHU216HW,2013-03-31 19:27:00,
2013-03-31 12:30:00,75.4,33.7,29.95,North,0,0.0,0.0,22,0.00,,,0.00,WUHU216HW,2013-03-31 19:30:00,
2013-03-31 12:32:00,75.6,33.8,29.95,North,0,0.0,0.0,22,0.00,,,0.00,WUHU216HW,2013-03-31 19:32:00,
2013-03-31 12:33:00,75.6,33.8,29.95,North,0,0.0,0.0,22,0.00,,,0.00,WUHU216HW,2013-03-31 19:33:00,
2013-03-31 12:35:00,76.0,34.1,29.94,North,0,0.0,0.0,22,0.00,,,0.00,WUHU216HW,2013-03-31 19:35:00,
2013-03-31 12:36:00,76.0,34.1,29.94,North,0,0.0,0.0,22,0.00,,,0.00,WUHU216HW,2013-03-31 19:36:00,
2013-03-31 12:38:00,76.0,34.1,29.94,North,0,0.0,0.0,22,0.00,,,0.00,WUHU216HW,2013-03-31 19:38:00,
2013-03-31 12:41:00,76.3,33.4,29.94,North,0,0.0,0.0,21,0.00,,,0.00,WUHU216HW,2013-03-31 19:41:00,
2013-03-31 12:42:00,76.3,33.4,29.94,North,0,0.0,0.0,21,0.00,,,0.00,WUHU216HW,2013-03-31 19:42:00,
2013-03-31 12:43:00,76.3,34.5,29.94,North,0,0.0,0.0,22,0.00,,,0.00,WUHU216HW,2013-03-31 19:43:00,
2013-03-31 12:44:00,76.3,34.5,29.94,North,0,0.0,0.0,22,0.00,,,0.00,WUHU216HW,2013-03-31 19:44:00,
2013-03-31 12:47:00,76.7,33.7,29.93,North,0,0.0,0.0,21,0.00,,,0.00,WUHU216HW,2013-03-31 19:47:00,
2013-03-31 12:48:00,76.7,33.7,29.93,North,0,0.0,0.0,21,0.00,,,0.00,WUHU216HW,2013-03-31 19:48:00,
2013-03-31 12:49:00,77.0,31.3,29.93,North,0,0.0,0.0,19,0.00,,,0.00,WUHU216HW,2013-03-31 19:49:00,
2013-03-31 12:53:00,77.0,34.0,29.93,North,0,0.0,0.0,21,0.00,,,0.00,WUHU216HW,2013-03-31 19:53:00,
2013-03-31 12:54:00,77.0,34.0,29.93,North,0,0.0,0.0,21,0.00,,,0.00,WUHU216HW,2013-03-31 19:54:00,
2013-03-31 12:55:00,77.2,34.1,29.93,North,0,0.0,0.0,21,0.00,,,0.00,WUHU216HW,2013-03-31 19:55:00,
2013-03-31 12:59:00,77.6,33.4,29.93,North,0,0.0,0.0,20,0.00,,,0.00,WUHU216HW,2013-03-31 19:59:00,
2013-03-31 13:00:00,77.6,31.7,29.93,North,0,0.0,0.0,19,0.00,,,0.00,WUHU216HW,2013-03-31 20:00:00,
2013-03-31 13:04:00,77.8,31.9,29.93,North,0,0.0,0.0,19,0.00,,,0.00,WUHU216HW,2013-03-31 20:04:00,
2013-03-31 13:05:00,77.8,31.9,29.93,North,0,0.0,0.0,19,0.00,,,0.00,WUHU216HW,2013-03-31 20:05:00,
2013-03-31 13:09:00,77.8,31.9,29.93,North,0,0.0,0.0,19,0.00,,,0.00,WUHU216HW,2013-03-31 20:09:00,
2013-03-31 13:10:00,77.8,30.2,29.93,North,0,0.0,0.0,18,0.00,,,0.00,WUHU216HW,2013-03-31 20:10:00,
2013-03-31 13:11:00,77.8,31.9,29.93,North,0,0.0,0.0,19,0.00,,,0.00,WUHU216HW,2013-03-31 20:11:00,
2013-03-31 13:14:00,77.8,31.9,29.92,North,0,0.0,0.0,19,0.00,,,0.00,WUHU216HW,2013-03-31 20:14:00,
2013-03-31 13:15:00,77.8,31.9,29.92,North,0,0.0,0.0,19,0.00,,,0.00,WUHU216HW,2013-03-31 20:15:00,
2013-03-31 13:16:00,77.9,32.0,29.92,North,0,0.0,0.0,19,0.00,,,0.00,WUHU216HW,2013-03-31 20:16:00,
2013-03-31 13:17:00,77.9,32.0,29.92,North,0,0.0,0.0,19,0.00,,,0.00,WUHU216HW,2013-03-31 20:17:00,
2013-03-31 13:20:00,78.1,32.1,29.92,North,0,0.0,0.0,19,0.00,,,0.00,WUHU216HW,2013-03-31 20:20:00,
2013-03-31 13:21:00,78.3,30.6,29.92,North,0,0.0,0.0,18,0.00,,,0.00,WUHU216HW,2013-03-31 20:21:00,
2013-03-31 13:22:00,78.5,32.4,29.92,North,0,0.0,0.0,19,0.00,,,0.00,WUHU216HW,2013-03-31 20:22:00,
2013-03-31 13:25:00,78.8,31.1,29.92,North,0,0.0,0.0,18,0.00,,,0.00,WUHU216HW,2013-03-31 20:25:00,
2013-03-31 13:27:00,79.2,31.3,29.91,North,0,0.0,0.0,18,0.00,,,0.00,WUHU216HW,2013-03-31 20:27:00,
2013-03-31 13:29:00,79.2,31.3,29.91,North,0,0.0,0.0,18,0.00,,,0.00,WUHU216HW,2013-03-31 20:29:00,
2013-03-31 13:30:00,79.2,31.3,29.92,North,0,0.0,0.0,18,0.00,,,0.00,WUHU216HW,2013-03-31 20:30:00,
2013-03-31 13:33:00,79.2,31.3,29.91,North,0,0.0,0.0,18,0.00,,,0.00,WUHU216HW,2013-03-31 20:33:00,
2013-03-31 13:34:00,79.0,31.2,29.91,North,0,0.0,0.0,18,0.00,,,0.00,WUHU216HW,2013-03-31 20:34:00,
2013-03-31 13:35:00,79.0,31.2,29.91,North,0,0.0,0.0,18,0.00,,,0.00,WUHU216HW,2013-03-31 20:35:00,
2013-03-31 13:38:00,78.8,31.1,29.91,North,0,0.0,0.0,18,0.00,,,0.00,WUHU216HW,2013-03-31 20:38:00,
2013-03-31 13:39:00,78.7,30.9,29.91,North,0,0.0,0.0,18,0.00,,,0.00,WUHU216HW,2013-03-31 20:39:00,
2013-03-31 13:40:00,78.7,30.9,29.91,North,0,0.0,0.0,18,0.00,,,0.00,WUHU216HW,2013-03-31 20:40:00,
2013-03-31 13:41:00,78.7,30.9,29.91,North,0,0.0,0.0,18,0.00,,,0.00,WUHU216HW,2013-03-31 20:41:00,
2013-03-31 13:43:00,78.7,30.9,29.91,North,0,0.0,0.0,18,0.00,,,0.00,WUHU216HW,2013-03-31 20:43:00,
2013-03-31 13:44:00,78.8,31.1,29.91,North,0,0.0,0.0,18,0.00,,,0.00,WUHU216HW,2013-03-31 20:44:00,
2013-03-31 13:46:00,78.8,29.3,29.91,North,0,0.0,0.0,17,0.00,,,0.00,WUHU216HW,2013-03-31 20:46:00,
2013-03-31 13:48:00,78.8,31.1,29.90,North,0,0.0,0.0,18,0.00,,,0.00,WUHU216HW,2013-03-31 20:48:00,
2013-03-31 13:49:00,78.8,31.1,29.90,North,0,0.0,0.0,18,0.00,,,0.00,WUHU216HW,2013-03-31 20:49:00,
2013-03-31 13:51:00,78.8,31.1,29.90,North,0,0.0,0.0,18,0.00,,,0.00,WUHU216HW,2013-03-31 20:51:00,
2013-03-31 13:54:00,78.8,31.1,29.91,North,0,0.0,0.0,18,0.00,,,0.00,WUHU216HW,2013-03-31 20:54:00,
2013-03-31 13:57:00,79.4,31.5,29.90,North,0,0.0,0.0,18,0.00,,,0.00,WUHU216HW,2013-03-31 20:57:00,
2013-03-31 13:58:00,79.6,31.7,29.90,North,0,0.0,0.0,18,0.00,,,0.00,WUHU216HW,2013-03-31 20:58:00,
2013-03-31 13:59:00,79.9,32.0,29.90,North,0,0.0,0.0,18,0.00,,,0.00,WUHU216HW,2013-03-31 20:59:00,
2013-03-31 14:00:00,79.9,32.0,29.90,North,0,0.0,0.0,18,0.00,,,0.00,WUHU216HW,2013-03-31 21:00:00,
2013-03-31 14:03:00,80.3,32.3,29.90,North,0,0.0,0.0,18,0.00,,,0.00,WUHU216HW,2013-03-31 21:03:00,
2013-03-31 14:05:00,80.6,32.6,29.90,North,0,0.0,0.0,18,0.00,,,0.00,WUHU216HW,2013-03-31 21:05:00,
2013-03-31 14:07:00,81.0,33.0,29.90,North,0,0.0,0.0,18,0.00,,,0.00,WUHU216HW,2013-03-31 21:07:00,
2013-03-31 14:08:00,81.0,29.5,29.89,North,0,0.0,0.0,16,0.00,,,0.00,WUHU216HW,2013-03-31 21:08:00,
2013-03-31 14:10:00,81.0,31.2,29.89,North,0,0.0,0.0,17,0.00,,,0.00,WUHU216HW,2013-03-31 21:10:00,
2013-03-31 14:12:00,81.0,31.2,29.89,North,0,0.0,0.0,17,0.00,,,0.00,WUHU216HW,2013-03-31 21:12:00,
2013-03-31 14:13:00,81.0,31.2,29.89,North,0,0.0,0.0,17,0.00,,,0.00,WUHU216HW,2013-03-31 21:13:00,
2013-03-31 14:15:00,81.0,29.5,29.89,North,0,0.0,0.0,16,0.00,,,0.00,WUHU216HW,2013-03-31 21:15:00,
2013-03-31 14:18:00,80.8,31.1,29.89,North,0,0.0,0.0,17,0.00,,,0.00,WUHU216HW,2013-03-31 21:18:00,
2013-03-31 14:19:00,80.6,31.0,29.89,North,0,0.0,0.0,17,0.00,,,0.00,WUHU216HW,2013-03-31 21:19:00,
2013-03-31 14:20:00,80.8,32.8,29.89,North,0,0.0,0.0,18,0.00,,,0.00,WUHU216HW,2013-03-31 21:20:00,
2013-03-31 14:21:00,80.8,32.8,29.89,North,0,0.0,0.0,18,0.00,,,0.00,WUHU216HW,2013-03-31 21:21:00,
2013-03-31 14:23:00,81.0,33.0,29.89,North,0,0.0,0.0,18,0.00,,,0.00,WUHU216HW,2013-03-31 21:23:00,
2013-03-31 14:24:00,81.0,31.2,29.89,North,0,0.0,0.0,17,0.00,,,0.00,WUHU216HW,2013-03-31 21:24:00,
2013-03-31 14:25:00,81.0,31.2,29.89,North,0,0.0,0.0,17,0.00,,,0.00,WUHU216HW,2013-03-31 21:25:00,
2013-03-31 14:26:00,81.0,31.2,29.89,North,0,0.0,0.0,17,0.00,,,0.00,WUHU216HW,2013-03-31 21:26:00,
2013-03-31 14:28:00,81.2,31.3,29.89,North,0,0.0,0.0,17,0.00,,,0.00,WUHU216HW,2013-03-31 21:28:00,
2013-03-31 14:30:00,81.2,29.7,29.89,North,0,0.0,0.0,16,0.00,,,0.00,WUHU216HW,2013-03-31 21:30:00,
2013-03-31 14:31:00,81.0,29.5,29.88,North,0,0.0,0.0,16,0.00,,,0.00,WUHU216HW,2013-03-31 21:31:00,
2013-03-31 14:34:00,80.3,28.9,29.88,North,0,0.0,0.0,16,0.00,,,0.00,WUHU216HW,2013-03-31 21:34:00,
2013-03-31 14:35:00,80.1,30.4,29.88,North,0,0.0,0.0,17,0.00,,,0.00,WUHU216HW,2013-03-31 21:35:00,
2013-03-31 14:36:00,80.3,30.6,29.88,North,0,0.0,0.0,17,0.00,,,0.00,WUHU216HW,2013-03-31 21:36:00,
2013-03-31 14:39:00,80.1,28.8,29.88,North,0,0.0,0.0,16,0.00,,,0.00,WUHU216HW,2013-03-31 21:39:00,
2013-03-31 14:40:00,79.9,28.6,29.88,North,0,0.0,0.0,16,0.00,,,0.00,WUHU216HW,2013-03-31 21:40:00,
2013-03-31 14:41:00,79.9,28.6,29.88,North,0,0.0,0.0,16,0.00,,,0.00,WUHU216HW,2013-03-31 21:41:00,
2013-03-31 14:42:00,79.9,30.3,29.88,North,0,0.0,0.0,17,0.00,,,0.00,WUHU216HW,2013-03-31 21:42:00,
2013-03-31 14:44:00,80.1,30.4,29.88,North,0,0.0,0.0,17,0.00,,,0.00,WUHU216HW,2013-03-31 21:44:00,
2013-03-31 14:46:00,80.1,30.4,29.88,North,0,0.0,0.0,17,0.00,,,0.00,WUHU216HW,2013-03-31 21:46:00,
2013-03-31 14:47:00,80.3,28.9,29.88,North,0,0.0,0.0,16,0.00,,,0.00,WUHU216HW,2013-03-31 21:47:00,
2013-03-31 14:48:00,80.3,30.6,29.88,North,0,0.0,0.0,17,0.00,,,0.00,WUHU216HW,2013-03-31 21:48:00,
2013-03-31 14:51:00,80.3,30.6,29.88,North,0,0.0,0.0,17,0.00,,,0.00,WUHU216HW,2013-03-31 21:51:00,
2013-03-31 14:52:00,80.3,30.6,29.88,North,0,0.0,0.0,17,0.00,,,0.00,WUHU216HW,2013-03-31 21:52:00,
2013-03-31 14:53:00,80.5,30.8,29.88,North,0,0.0,0.0,17,0.00,,,0.00,WUHU216HW,2013-03-31 21:53:00,
2013-03-31 14:56:00,80.6,31.0,29.88,North,0,0.0,0.0,17,0.00,,,0.00,WUHU216HW,2013-03-31 21:56:00,
2013-03-31 14:57:00,80.8,31.1,29.88,North,0,0.0,0.0,17,0.00,,,0.00,WUHU216HW,2013-03-31 21:57:00,
2013-03-31 14:58:00,80.8,29.3,29.88,North,0,0.0,0.0,16,0.00,,,0.00,WUHU216HW,2013-03-31 21:58:00,
2013-03-31 14:59:00,80.8,31.1,29.88,North,0,0.0,0.0,17,0.00,,,0.00,WUHU216HW,2013-03-31 21:59:00,
2013-03-31 15:02:00,80.8,31.1,29.88,North,0,0.0,0.0,17,0.00,,,0.00,WUHU216HW,2013-03-31 22:02:00,
2013-03-31 15:03:00,80.8,31.1,29.88,North,0,0.0,0.0,17,0.00,,,0.00,WUHU216HW,2013-03-31 22:03:00,
2013-03-31 15:04:00,80.8,29.3,29.88,North,0,0.0,0.0,16,0.00,,,0.00,WUHU216HW,2013-03-31 22:04:00,
2013-03-31 15:08:00,80.6,29.3,29.88,North,0,0.0,0.0,16,0.00,,,0.00,WUHU216HW,2013-03-31 22:08:00,
2013-03-31 15:09:00,80.5,29.1,29.88,North,0,0.0,0.0,16,0.00,,,0.00,WUHU216HW,2013-03-31 22:09:00,
2013-03-31 15:10:00,80.5,29.1,29.88,North,0,0.0,0.0,16,0.00,,,0.00,WUHU216HW,2013-03-31 22:10:00,
2013-03-31 15:13:00,79.9,28.6,29.88,North,0,0.0,0.0,16,0.00,,,0.00,WUHU216HW,2013-03-31 22:13:00,
2013-03-31 15:14:00,79.9,28.6,29.88,North,0,0.0,0.0,16,0.00,,,0.00,WUHU216HW,2013-03-31 22:14:00,
2013-03-31 15:15:00,79.7,28.4,29.88,North,0,0.0,0.0,16,0.00,,,0.00,WUHU216HW,2013-03-31 22:15:00,
2013-03-31 15:18:00,79.6,28.3,29.88,North,0,0.0,0.0,16,0.00,,,0.00,WUHU216HW,2013-03-31 22:18:00,
2013-03-31 15:19:00,79.6,28.3,29.87,North,0,0.0,0.0,16,0.00,,,0.00,WUHU216HW,2013-03-31 22:19:00,
2013-03-31 15:20:00,79.6,28.3,29.87,North,0,0.0,0.0,16,0.00,,,0.00,WUHU216HW,2013-03-31 22:20:00,
2013-03-31 15:24:00,79.6,28.3,29.87,North,0,0.0,0.0,16,0.00,,,0.00,WUHU216HW,2013-03-31 22:24:00,
2013-03-31 15:25:00,79.6,28.3,29.87,North,0,0.0,0.0,16,0.00,,,0.00,WUHU216HW,2013-03-31 22:25:00,
2013-03-31 15:27:00,79.6,28.3,29.87,North,0,0.0,0.0,16,0.00,,,0.00,WUHU216HW,2013-03-31 22:27:00,
2013-03-31 15:30:00,79.4,28.2,29.87,North,0,0.0,0.0,16,0.00,,,0.00,WUHU216HW,2013-03-31 22:30:00,
2013-03-31 15:31:00,79.4,28.2,29.87,North,0,0.0,0.0,16,0.00,,,0.00,WUHU216HW,2013-03-31 22:31:00,
2013-03-31 15:32:00,79.4,29.8,29.87,North,0,0.0,0.0,17,0.00,,,0.00,WUHU216HW,2013-03-31 22:32:00,
2013-03-31 15:35:00,79.4,28.2,29.87,North,0,0.0,0.0,16,0.00,,,0.00,WUHU216HW,2013-03-31 22:35:00,
2013-03-31 15:37:00,79.4,29.8,29.87,North,0,0.0,0.0,17,0.00,,,0.00,WUHU216HW,2013-03-31 22:37:00,
2013-03-31 15:38:00,79.4,29.8,29.87,North,0,0.0,0.0,17,0.00,,,0.00,WUHU216HW,2013-03-31 22:38:00,
2013-03-31 15:40:00,79.4,28.2,29.86,North,0,0.0,0.0,16,0.00,,,0.00,WUHU216HW,2013-03-31 22:40:00,
2013-03-31 15:43:00,79.2,28.0,29.86,North,0,0.0,0.0,16,0.00,,,0.00,WUHU216HW,2013-03-31 22:43:00,
2013-03-31 15:44:00,79.2,29.7,29.86,North,0,0.0,0.0,17,0.00,,,0.00,WUHU216HW,2013-03-31 22:44:00,
2013-03-31 15:45:00,79.2,29.7,29.86,North,0,0.0,0.0,17,0.00,,,0.00,WUHU216HW,2013-03-31 22:45:00,
2013-03-31 15:48:00,79.2,28.0,29.86,North,0,0.0,0.0,16,0.00,,,0.00,WUHU216HW,2013-03-31 22:48:00,
2013-03-31 15:49:00,79.0,27.8,29.86,North,0,0.0,0.0,16,0.00,,,0.00,WUHU216HW,2013-03-31 22:49:00,
2013-03-31 15:51:00,79.2,28.0,29.86,North,0,0.0,0.0,16,0.00,,,0.00,WUHU216HW,2013-03-31 22:51:00,
2013-03-31 15:53:00,79.0,27.8,29.86,North,0,0.0,0.0,16,0.00,,,0.00,WUHU216HW,2013-03-31 22:53:00,
2013-03-31 15:54:00,79.0,27.8,29.86,North,0,0.0,0.0,16,0.00,,,0.00,WUHU216HW,2013-03-31 22:54:00,
2013-03-31 15:57:00,79.0,27.8,29.86,North,0,0.0,0.0,16,0.00,,,0.00,WUHU216HW,2013-03-31 22:57:00,
2013-03-31 15:58:00,79.0,27.8,29.86,North,0,0.0,0.0,16,0.00,,,0.00,WUHU216HW,2013-03-31 22:58:00,
2013-03-31 15:59:00,79.0,27.8,29.86,North,0,0.0,0.0,16,0.00,,,0.00,WUHU216HW,2013-03-31 22:59:00,
2013-03-31 16:00:00,79.0,27.8,29.86,North,0,0.0,0.0,16,0.00,,,0.00,WUHU216HW,2013-03-31 23:00:00,
2013-03-31 16:02:00,79.0,27.8,29.87,North,0,0.0,0.0,16,0.00,,,0.00,WUHU216HW,2013-03-31 23:02:00,
2013-03-31 16:03:00,79.0,27.8,29.86,North,0,0.0,0.0,16,0.00,,,0.00,WUHU216HW,2013-03-31 23:03:00,
2013-03-31 16:04:00,79.0,27.8,29.86,North,0,0.0,0.0,16,0.00,,,0.00,WUHU216HW,2013-03-31 23:04:00,
2013-03-31 16:05:00,79.0,26.2,29.86,North,0,0.0,0.0,15,0.00,,,0.00,WUHU216HW,2013-03-31 23:05:00,
2013-03-31 16:08:00,79.0,27.8,29.87,North,0,0.0,0.0,16,0.00,,,0.00,WUHU216HW,2013-03-31 23:08:00,
2013-03-31 16:09:00,78.8,27.7,29.86,North,0,0.0,0.0,16,0.00,,,0.00,WUHU216HW,2013-03-31 23:09:00,
2013-03-31 16:10:00,79.0,27.8,29.86,North,0,0.0,0.0,16,0.00,,,0.00,WUHU216HW,2013-03-31 23:10:00,
2013-03-31 16:11:00,79.0,27.8,29.86,North,0,0.0,0.0,16,0.00,,,0.00,WUHU216HW,2013-03-31 23:11:00,
2013-03-31 16:13:00,79.2,28.0,29.86,North,0,0.0,0.0,16,0.00,,,0.00,WUHU216HW,2013-03-31 23:13:00,
2013-03-31 16:14:00,79.4,28.2,29.86,North,0,0.0,0.0,16,0.00,,,0.00,WUHU216HW,2013-03-31 23:14:00,
2013-03-31 16:15:00,79.4,28.2,29.86,North,0,0.0,0.0,16,0.00,,,0.00,WUHU216HW,2013-03-31 23:15:00,
2013-03-31 16:17:00,79.6,28.3,29.86,North,0,0.0,0.0,16,0.00,,,0.00,WUHU216HW,2013-03-31 23:17:00,
2013-03-31 16:18:00,79.6,28.3,29.86,North,0,0.0,0.0,16,0.00,,,0.00,WUHU216HW,2013-03-31 23:18:00,
2013-03-31 16:19:00,79.6,28.3,29.87,North,0,0.0,0.0,16,0.00,,,0.00,WUHU216HW,2013-03-31 23:19:00,
2013-03-31 16:21:00,79.6,28.3,29.86,North,0,0.0,0.0,16,0.00,,,0.00,WUHU216HW,2013-03-31 23:21:00,
2013-03-31 16:22:00,79.7,28.4,29.87,North,0,0.0,0.0,16,0.00,,,0.00,WUHU216HW,2013-03-31 23:22:00,
2013-03-31 16:23:00,79.7,28.4,29.87,North,0,0.0,0.0,16,0.00,,,0.00,WUHU216HW,2013-03-31 23:23:00,
2013-03-31 16:25:00,79.7,28.4,29.86,North,0,0.0,0.0,16,0.00,,,0.00,WUHU216HW,2013-03-31 23:25:00,
2013-03-31 16:26:00,79.7,26.8,29.86,North,0,0.0,0.0,15,0.00,,,0.00,WUHU216HW,2013-03-31 23:26:00,
2013-03-31 16:28:00,79.6,26.7,29.86,North,0,0.0,0.0,15,0.00,,,0.00,WUHU216HW,2013-03-31 23:28:00,
2013-03-31 16:30:00,79.6,26.7,29.86,North,0,0.0,0.0,15,0.00,,,0.00,WUHU216HW,2013-03-31 23:30:00,
2013-03-31 16:33:00,79.4,26.5,29.86,North,0,0.0,0.0,15,0.00,,,0.00,WUHU216HW,2013-03-31 23:33:00,
2013-03-31 16:36:00,79.6,28.3,29.86,North,0,0.0,0.0,16,0.00,,,0.00,WUHU216HW,2013-03-31 23:36:00,
2013-03-31 16:38:00,79.6,26.7,29.86,North,0,0.0,0.0,15,0.00,,,0.00,WUHU216HW,2013-03-31 23:38:00,
2013-03-31 16:39:00,79.6,26.7,29.86,North,0,0.0,0.0,15,0.00,,,0.00,WUHU216HW,2013-03-31 23:39:00,
2013-03-31 16:43:00,79.6,26.7,29.86,North,0,0.0,0.0,15,0.00,,,0.00,WUHU216HW,2013-03-31 23:43:00,
2013-03-31 16:44:00,79.4,26.5,29.86,North,0,0.0,0.0,15,0.00,,,0.00,WUHU216HW,2013-03-31 23:44:00,
2013-03-31 16:48:00,79.4,26.5,29.86,North,0,0.0,0.0,15,0.00,,,0.00,WUHU216HW,2013-03-31 23:48:00,
2013-03-31 16:49:00,79.4,26.5,29.86,North,0,0.0,0.0,15,0.00,,,0.00,WUHU216HW,2013-03-31 23:49:00,
2013-03-31 16:54:00,79.0,26.2,29.86,North,0,0.0,0.0,15,0.00,,,0.00,WUHU216HW,2013-03-31 23:54:00,
2013-03-31 16:55:00,78.8,26.0,29.86,North,0,0.0,0.0,15,0.00,,,0.00,WUHU216HW,2013-03-31 23:55:00,
2013-03-31 17:00:00,78.7,25.9,29.86,North,0,0.0,0.0,15,0.00,,,0.00,WUHU216HW,2013-04-01 00:00:00,
2013-03-31 17:02:00,78.7,25.9,29.86,North,0,0.0,0.0,15,0.00,,,0.00,WUHU216HW,2013-04-01 00:02:00,
2013-03-31 17:05:00,78.7,27.5,29.86,North,0,0.0,0.0,16,0.00,,,0.00,WUHU216HW,2013-04-01 00:05:00,
2013-03-31 17:06:00,78.7,27.5,29.86,North,0,0.0,0.0,16,0.00,,,0.00,WUHU216HW,2013-04-01 00:06:00,
2013-03-31 17:07:00,78.7,27.5,29.86,North,0,0.0,0.0,16,0.00,,,0.00,WUHU216HW,2013-04-01 00:07:00,
2013-03-31 17:10:00,78.7,27.5,29.86,North,0,0.0,0.0,16,0.00,,,0.00,WUHU216HW,2013-04-01 00:10:00,
2013-03-31 17:11:00,78.7,27.5,29.86,North,0,0.0,0.0,16,0.00,,,0.00,WUHU216HW,2013-04-01 00:11:00,
2013-03-31 17:13:00,78.7,27.5,29.86,North,0,0.0,0.0,16,0.00,,,0.00,WUHU216HW,2013-04-01 00:13:00,
2013-03-31 17:15:00,78.5,27.5,29.86,North,0,0.0,0.0,16,0.00,,,0.00,WUHU216HW,2013-04-01 00:15:00,
2013-03-31 17:16:00,78.5,27.5,29.86,North,0,0.0,0.0,16,0.00,,,0.00,WUHU216HW,2013-04-01 00:16:00,
2013-03-31 17:18:00,78.5,27.5,29.86,North,0,0.0,0.0,16,0.00,,,0.00,WUHU216HW,2013-04-01 00:18:00,
2013-03-31 17:20:00,78.1,27.2,29.86,North,0,0.0,0.0,16,0.00,,,0.00,WUHU216HW,2013-04-01 00:20:00,
2013-03-31 17:22:00,78.1,27.2,29.86,North,0,0.0,0.0,16,0.00,,,0.00,WUHU216HW,2013-04-01 00:22:00,
2013-03-31 17:23:00,77.8,26.8,29.86,North,0,0.0,0.0,16,0.00,,,0.00,WUHU216HW,2013-04-01 00:23:00,
2013-03-31 17:24:00,77.8,26.8,29.86,North,0,0.0,0.0,16,0.00,,,0.00,WUHU216HW,2013-04-01 00:24:00,
2013-03-31 17:25:00,77.6,26.7,29.86,North,0,0.0,0.0,16,0.00,,,0.00,WUHU216HW,2013-04-01 00:25:00,
2013-03-31 17:27:00,77.4,26.6,29.86,North,0,0.0,0.0,16,0.00,,,0.00,WUHU216HW,2013-04-01 00:27:00,
2013-03-31 17:28:00,77.2,26.5,29.86,North,0,0.0,0.0,16,0.00,,,0.00,WUHU216HW,2013-04-01 00:28:00,
2013-03-31 17:29:00,77.0,26.3,29.86,North,0,0.0,0.0,16,0.00,,,0.00,WUHU216HW,2013-04-01 00:29:00,
2013-03-31 17:31:00,76.9,26.2,29.86,North,0,0.0,0.0,16,0.00,,,0.00,WUHU216HW,2013-04-01 00:31:00,
2013-03-31 17:33:00,76.7,26.0,29.86,North,0,0.0,0.0,16,0.00,,,0.00,WUHU216HW,2013-04-01 00:33:00,
2013-03-31 17:34:00,76.7,27.7,29.86,North,0,0.0,0.0,17,0.00,,,0.00,WUHU216HW,2013-04-01 00:34:00,
2013-03-31 17:35:00,76.7,26.0,29.86,North,0,0.0,0.0,16,0.00,,,0.00,WUHU216HW,2013-04-01 00:35:00,
2013-03-31 17:36:00,76.7,27.7,29.86,North,0,0.0,0.0,17,0.00,,,0.00,WUHU216HW,2013-04-01 00:36:00,
2013-03-31 17:39:00,76.5,25.9,29.86,North,0,0.0,0.0,16,0.00,,,0.00,WUHU216HW,2013-04-01 00:39:00,
2013-03-31 17:41:00,76.3,27.4,29.86,North,0,0.0,0.0,17,0.00,,,0.00,WUHU216HW,2013-04-01 00:41:00,
2013-03-31 17:44:00,76.3,27.4,29.86,North,0,0.0,0.0,17,0.00,,,0.00,WUHU216HW,2013-04-01 00:44:00,
2013-03-31 17:46:00,76.3,27.4,29.86,North,0,0.0,0.0,17,0.00,,,0.00,WUHU216HW,2013-04-01 00:46:00,
2013-03-31 17:47:00,76.3,27.4,29.86,North,0,0.0,0.0,17,0.00,,,0.00,WUHU216HW,2013-04-01 00:47:00,
2013-03-31 17:49:00,76.1,27.3,29.86,North,0,0.0,0.0,17,0.00,,,0.00,WUHU216HW,2013-04-01 00:49:00,
2013-03-31 17:51:00,76.1,27.3,29.86,North,0,0.0,0.0,17,0.00,,,0.00,WUHU216HW,2013-04-01 00:51:00,
2013-03-31 17:53:00,76.0,27.1,29.86,North,0,0.0,0.0,17,0.00,,,0.00,WUHU216HW,2013-04-01 00:53:00,
2013-03-31 17:55:00,75.8,27.0,29.86,North,0,0.0,0.0,17,0.00,,,0.00,WUHU216HW,2013-04-01 00:55:00,
2013-03-31 17:57:00,75.8,27.0,29.86,North,0,0.0,0.0,17,0.00,,,0.00,WUHU216HW,2013-04-01 00:57:00,
2013-03-31 17:58:00,75.6,26.8,29.86,North,0,0.0,0.0,17,0.00,,,0.00,WUHU216HW,2013-04-01 00:58:00,
2013-03-31 17:59:00,75.6,26.8,29.86,North,0,0.0,0.0,17,0.00,,,0.00,WUHU216HW,2013-04-01 00:59:00,
2013-03-31 18:00:00,75.6,26.8,29.86,North,0,0.0,0.0,17,0.00,,,0.00,WUHU216HW,2013-04-01 01:00:00,
2013-03-31 18:02:00,75.6,26.8,29.86,North,0,0.0,0.0,17,0.00,,,0.00,WUHU216HW,2013-04-01 01:02:00,
2013-03-31 18:04:00,75.6,26.8,29.86,North,0,0.0,0.0,17,0.00,,,0.00,WUHU216HW,2013-04-01 01:04:00,
2013-03-31 18:06:00,75.6,28.4,29.86,North,0,0.0,0.0,18,0.00,,,0.00,WUHU216HW,2013-04-01 01:06:00,
2013-03-31 18:08:00,75.6,28.4,29.86,North,0,0.0,0.0,18,0.00,,,0.00,WUHU216HW,2013-04-01 01:08:00,
2013-03-31 18:09:00,75.4,26.6,29.86,North,0,0.0,0.0,17,0.00,,,0.00,WUHU216HW,2013-04-01 01:09:00,
2013-03-31 18:10:00,75.4,28.4,29.86,North,0,0.0,0.0,18,0.00,,,0.00,WUHU216HW,2013-04-01 01:10:00,
2013-03-31 18:12:00,75.2,26.6,29.86,North,0,0.0,0.0,17,0.00,,,0.00,WUHU216HW,2013-04-01 01:12:00,
2013-03-31 18:13:00,75.2,26.6,29.86,North,0,0.0,0.0,17,0.00,,,0.00,WUHU216HW,2013-04-01 01:13:00,
2013-03-31 18:16:00,75.1,28.1,29.86,North,0,0.0,0.0,18,0.00,,,0.00,WUHU216HW,2013-04-01 01:16:00,
2013-03-31 18:17:00,75.1,28.1,29.86,North,0,0.0,0.0,18,0.00,,,0.00,WUHU216HW,2013-04-01 01:17:00,
2013-03-31 18:18:00,74.9,26.3,29.86,North,0,0.0,0.0,17,0.00,,,0.00,WUHU216HW,2013-04-01 01:18:00,
2013-03-31 18:19:00,74.9,26.3,29.86,North,0,0.0,0.0,17,0.00,,,0.00,WUHU216HW,2013-04-01 01:19:00,
2013-03-31 18:23:00,74.5,26.0,29.86,North,0,0.0,0.0,17,0.00,,,0.00,WUHU216HW,2013-04-01 01:23:00,
2013-03-31 18:24:00,74.5,26.0,29.86,North,0,0.0,0.0,17,0.00,,,0.00,WUHU216HW,2013-04-01 01:24:00,
2013-03-31 18:25:00,74.5,26.0,29.86,North,0,0.0,0.0,17,0.00,,,0.00,WUHU216HW,2013-04-01 01:25:00,
2013-03-31 18:29:00,74.2,27.4,29.86,North,0,0.0,0.0,18,0.00,,,0.00,WUHU216HW,2013-04-01 01:29:00,
2013-03-31 18:30:00,74.0,27.2,29.86,North,0,0.0,0.0,18,0.00,,,0.00,WUHU216HW,2013-04-01 01:30:00,
2013-03-31 18:33:00,73.8,27.1,29.86,North,0,0.0,0.0,18,0.00,,,0.00,WUHU216HW,2013-04-01 01:33:00,
2013-03-31 18:34:00,73.6,26.9,29.86,North,0,0.0,0.0,18,0.00,,,0.00,WUHU216HW,2013-04-01 01:34:00,
2013-03-31 18:35:00,73.6,26.9,29.86,North,0,0.0,0.0,18,0.00,,,0.00,WUHU216HW,2013-04-01 01:35:00,
2013-03-31 18:39:00,73.3,26.7,29.86,North,0,0.0,0.0,18,0.00,,,0.00,WUHU216HW,2013-04-01 01:39:00,
2013-03-31 18:40:00,73.3,26.7,29.86,North,0,0.0,0.0,18,0.00,,,0.00,WUHU216HW,2013-04-01 01:40:00,
2013-03-31 18:44:00,72.9,26.3,29.87,North,0,0.0,0.0,18,0.00,,,0.00,WUHU216HW,2013-04-01 01:44:00,
2013-03-31 18:45:00,72.9,26.3,29.87,North,0,0.0,0.0,18,0.00,,,0.00,WUHU216HW,2013-04-01 01:45:00,
2013-03-31 18:47:00,72.7,26.2,29.87,North,0,0.0,0.0,18,0.00,,,0.00,WUHU216HW,2013-04-01 01:47:00,
2013-03-31 18:49:00,72.5,26.0,29.87,North,0,0.0,0.0,18,0.00,,,0.00,WUHU216HW,2013-04-01 01:49:00,
2013-03-31 18:50:00,72.5,26.0,29.87,North,0,0.0,0.0,18,0.00,,,0.00,WUHU216HW,2013-04-01 01:50:00,
2013-03-31 18:52:00,72.4,25.8,29.87,North,0,0.0,0.0,18,0.00,,,0.00,WUHU216HW,2013-04-01 01:52:00,
2013-03-31 18:53:00,72.4,27.5,29.87,North,0,0.0,0.0,19,0.00,,,0.00,WUHU216HW,2013-04-01 01:53:00,
2013-03-31 18:55:00,72.2,27.3,29.87,North,0,0.0,0.0,19,0.00,,,0.00,WUHU216HW,2013-04-01 01:55:00,
2013-03-31 18:58:00,72.0,27.2,29.87,North,0,0.0,0.0,19,0.00,,,0.00,WUHU216HW,2013-04-01 01:58:00,
2013-03-31 19:00:00,71.8,27.0,29.86,North,0,0.0,0.0,19,0.00,,,0.00,WUHU216HW,2013-04-01 02:00:00,
2013-03-31 19:01:00,71.8,27.0,29.87,North,0,0.0,0.0,19,0.00,,,0.00,WUHU216HW,2013-04-01 02:01:00,
2013-03-31 19:04:00,71.6,26.8,29.87,North,0,0.0,0.0,19,0.00,,,0.00,WUHU216HW,2013-04-01 02:04:00,
2013-03-31 19:05:00,71.5,26.6,29.87,North,0,0.0,0.0,19,0.00,,,0.00,WUHU216HW,2013-04-01 02:05:00,
2013-03-31 19:06:00,71.5,26.6,29.87,North,0,0.0,0.0,19,0.00,,,0.00,WUHU216HW,2013-04-01 02:06:00,
2013-03-31 19:09:00,71.3,26.6,29.87,North,0,0.0,0.0,19,0.00,,,0.00,WUHU216HW,2013-04-01 02:09:00,
2013-03-31 19:10:00,71.1,26.4,29.86,North,0,0.0,0.0,19,0.00,,,0.00,WUHU216HW,2013-04-01 02:10:00,
2013-03-31 19:12:00,70.9,26.3,29.86,North,0,0.0,0.0,19,0.00,,,0.00,WUHU216HW,2013-04-01 02:12:00,
2013-03-31 19:14:00,70.9,26.3,29.87,North,0,0.0,0.0,19,0.00,,,0.00,WUHU216HW,2013-04-01 02:14:00,
2013-03-31 19:17:00,70.7,27.7,29.87,North,0,0.0,0.0,20,0.00,,,0.00,WUHU216HW,2013-04-01 02:17:00,
2013-03-31 19:20:00,70.6,27.5,29.86,North,0,0.0,0.0,20,0.00,,,0.00,WUHU216HW,2013-04-01 02:20:00,
2013-03-31 19:22:00,70.2,28.3,29.86,North,0,0.0,0.0,21,0.00,,,0.00,WUHU216HW,2013-04-01 02:22:00,
2013-03-31 19:23:00,70.4,28.4,29.86,North,0,0.0,0.0,21,0.00,,,0.00,WUHU216HW,2013-04-01 02:23:00,
2013-03-31 19:24:00,70.2,28.3,29.87,North,0,0.0,0.0,21,0.00,,,0.00,WUHU216HW,2013-04-01 02:24:00,
2013-03-31 19:25:00,70.2,28.3,29.86,North,0,0.0,0.0,21,0.00,,,0.00,WUHU216HW,2013-04-01 02:25:00,
2013-03-31 19:27:00,70.0,28.2,29.86,North,0,0.0,0.0,21,0.00,,,0.00,WUHU216HW,2013-04-01 02:27:00,
2013-03-31 19:28:00,70.0,28.2,29.86,North,0,0.0,0.0,21,0.00,,,0.00,WUHU216HW,2013-04-01 02:28:00,
2013-03-31 19:29:00,69.8,28.0,29.87,North,0,0.0,0.0,21,0.00,,,0.00,WUHU216HW,2013-04-01 02:29:00,
2013-03-31 19:32:00,69.7,27.9,29.87,North,0,0.0,0.0,21,0.00,,,0.00,WUHU216HW,2013-04-01 02:32:00,
2013-03-31 19:33:00,69.7,27.9,29.87,North,0,0.0,0.0,21,0.00,,,0.00,WUHU216HW,2013-04-01 02:33:00,
2013-03-31 19:34:00,69.7,27.9,29.87,North,0,0.0,0.0,21,0.00,,,0.00,WUHU216HW,2013-04-01 02:34:00,
2013-03-31 19:38:00,69.5,27.7,29.87,North,0,0.0,0.0,21,0.00,,,0.00,WUHU216HW,2013-04-01 02:38:00,
2013-03-31 19:39:00,69.3,27.5,29.87,North,0,0.0,0.0,21,0.00,,,0.00,WUHU216HW,2013-04-01 02:39:00,
2013-03-31 19:40:00,69.3,27.5,29.87,North,0,0.0,0.0,21,0.00,,,0.00,WUHU216HW,2013-04-01 02:40:00,
2013-03-31 19:44:00,69.1,27.5,29.88,North,0,0.0,0.0,21,0.00,,,0.00,WUHU216HW,2013-04-01 02:44:00,
2013-03-31 19:45:00,69.1,27.5,29.88,North,0,0.0,0.0,21,0.00,,,0.00,WUHU216HW,2013-04-01 02:45:00,
2013-03-31 19:50:00,68.8,27.1,29.88,North,0,0.0,0.0,21,0.00,,,0.00,WUHU216HW,2013-04-01 02:50:00,
2013-03-31 19:51:00,68.8,28.2,29.88,North,0,0.0,0.0,22,0.00,,,0.00,WUHU216HW,2013-04-01 02:51:00,
2013-03-31 19:55:00,68.6,28.0,29.88,North,0,0.0,0.0,22,0.00,,,0.00,WUHU216HW,2013-04-01 02:55:00,
2013-03-31 19:56:00,68.6,28.0,29.88,North,0,0.0,0.0,22,0.00,,,0.00,WUHU216HW,2013-04-01 02:56:00,
2013-03-31 19:57:00,68.6,28.0,29.88,North,0,0.0,0.0,22,0.00,,,0.00,WUHU216HW,2013-04-01 02:57:00,
2013-03-31 20:00:00,68.0,27.5,29.88,North,0,0.0,0.0,22,0.00,,,0.00,WUHU216HW,2013-04-01 03:00:00,
2013-03-31 20:01:00,68.0,27.5,29.88,North,0,0.0,0.0,22,0.00,,,0.00,WUHU216HW,2013-04-01 03:01:00,
2013-03-31 20:02:00,68.0,27.5,29.88,North,0,0.0,0.0,22,0.00,,,0.00,WUHU216HW,2013-04-01 03:02:00,
2013-03-31 20:05:00,68.0,27.5,29.88,North,0,0.0,0.0,22,0.00,,,0.00,WUHU216HW,2013-04-01 03:05:00,
2013-03-31 20:06:00,68.0,27.5,29.88,North,0,0.0,0.0,22,0.00,,,0.00,WUHU216HW,2013-04-01 03:06:00,
2013-03-31 20:07:00,68.0,27.5,29.88,North,0,0.0,0.0,22,0.00,,,0.00,WUHU216HW,2013-04-01 03:07:00,
2013-03-31 20:30:00,66.2,27.0,29.88,North,0,0.0,0.0,23,0.00,,,0.00,WUHU216HW,2013-04-01 03:30:00,
2013-03-31 20:31:00,66.2,27.0,29.88,North,0,0.0,0.0,23,0.00,,,0.00,WUHU216HW,2013-04-01 03:31:00,
2013-03-31 20:35:00,66.2,27.0,29.88,North,0,0.0,0.0,23,0.00,,,0.00,WUHU216HW,2013-04-01 03:35:00,
2013-03-31 20:36:00,66.2,27.0,29.88,North,0,0.0,0.0,23,0.00,,,0.00,WUHU216HW,2013-04-01 03:36:00,
2013-03-31 20:37:00,66.2,27.0,29.88,North,0,0.0,0.0,23,0.00,,,0.00,WUHU216HW,2013-04-01 03:37:00,
2013-03-31 21:00:00,65.0,26.9,29.88,North,0,0.0,0.0,24,0.00,,,0.00,WUHU216HW,2013-04-01 04:00:00,
2013-03-31 21:05:00,65.0,26.9,29.88,North,0,0.0,0.0,24,0.00,,,0.00,WUHU216HW,2013-04-01 04:05:00,
2013-03-31 21:06:00,65.0,26.9,29.88,North,0,0.0,0.0,24,0.00,,,0.00,WUHU216HW,2013-04-01 04:06:00,
2013-03-31 21:10:00,65.0,26.9,29.88,North,0,0.0,0.0,24,0.00,,,0.00,WUHU216HW,2013-04-01 04:10:00,
2013-03-31 21:30:00,64.3,26.3,29.90,North,0,0.0,0.0,24,0.00,,,0.00,WUHU216HW,2013-04-01 04:30:00,
2013-03-31 21:32:00,64.3,26.3,29.90,North,0,0.0,0.0,24,0.00,,,0.00,WUHU216HW,2013-04-01 04:32:00,
2013-03-31 21:33:00,64.3,26.3,29.90,North,0,0.0,0.0,24,0.00,,,0.00,WUHU216HW,2013-04-01 04:33:00,
2013-03-31 21:35:00,64.3,26.3,29.90,North,0,0.0,0.0,24,0.00,,,0.00,WUHU216HW,2013-04-01 04:35:00,
2013-03-31 21:37:00,64.3,26.3,29.90,North,0,0.0,0.0,24,0.00,,,0.00,WUHU216HW,2013-04-01 04:37:00,
2013-03-31 21:38:00,64.3,26.3,29.90,North,0,0.0,0.0,24,0.00,,,0.00,WUHU216HW,2013-04-01 04:38:00,
2013-03-31 21:39:00,64.3,26.3,29.90,North,0,0.0,0.0,24,0.00,,,0.00,WUHU216HW,2013-04-01 04:39:00,
2013-03-31 22:00:00,63.2,26.4,29.90,North,0,0.0,0.0,25,0.00,,,0.00,WUHU216HW,2013-04-01 05:00:00,
2013-03-31 22:01:00,63.2,26.4,29.90,North,0,0.0,0.0,25,0.00,,,0.00,WUHU216HW,2013-04-01 05:01:00,
2013-03-31 22:02:00,63.2,26.4,29.90,North,0,0.0,0.0,25,0.00,,,0.00,WUHU216HW,2013-04-01 05:02:00,
2013-03-31 22:05:00,63.2,26.4,29.90,North,0,0.0,0.0,25,0.00,,,0.00,WUHU216HW,2013-04-01 05:05:00,
2013-03-31 22:07:00,63.2,26.4,29.90,North,0,0.0,0.0,25,0.00,,,0.00,WUHU216HW,2013-04-01 05:07:00,
2013-03-31 22:08:00,63.2,26.4,29.90,North,0,0.0,0.0,25,0.00,,,0.00,WUHU216HW,2013-04-01 05:08:00,
2013-03-31 22:30:00,61.6,27.9,29.89,North,0,0.0,0.0,28,0.00,,,0.00,WUHU216HW,2013-04-01 05:30:00,
2013-03-31 22:31:00,61.6,27.9,29.89,North,0,0.0,0.0,28,0.00,,,0.00,WUHU216HW,2013-04-01 05:31:00,
2013-03-31 22:33:00,61.6,27.9,29.89,North,0,0.0,0.0,28,0.00,,,0.00,WUHU216HW,2013-04-01 05:33:00,
2013-03-31 22:35:00,61.6,27.9,29.89,North,0,0.0,0.0,28,0.00,,,0.00,WUHU216HW,2013-04-01 05:35:00,
2013-03-31 22:36:00,61.6,27.9,29.89,North,0,0.0,0.0,28,0.00,,,0.00,WUHU216HW,2013-04-01 05:36:00,
2013-03-31 22:37:00,61.6,27.9,29.89,North,0,0.0,0.0,28,0.00,,,0.00,WUHU216HW,2013-04-01 05:37:00,
2013-03-31 22:38:00,61.6,27.9,29.89,North,0,0.0,0.0,28,0.00,,,0.00,WUHU216HW,2013-04-01 05:38:00,
2013-03-31 23:00:00,61.6,31.2,29.89,North,0,0.0,0.0,32,0.00,,,0.00,WUHU216HW,2013-04-01 06:00:00,
2013-03-31 23:05:00,61.6,31.2,29.89,North,0,0.0,0.0,32,0.00,,,0.00,WUHU216HW,2013-04-01 06:05:00,
2013-03-31 23:07:00,61.6,31.2,29.89,North,0,0.0,0.0,32,0.00,,,0.00,WUHU216HW,2013-04-01 06:07:00,
2013-03-31 23:30:00,61.0,30.8,29.89,North,0,0.0,0.0,32,0.00,,,0.00,WUHU216HW,2013-04-01 06:30:00,
2013-03-31 23:31:00,61.0,30.8,29.89,North,0,0.0,0.0,32,0.00,,,0.00,WUHU216HW,2013-04-01 06:31:00,
2013-03-31 23:36:00,61.0,30.8,29.89,North,0,0.0,0.0,32,0.00,,,0.00,WUHU216HW,2013-04-01 06:36:00,
2013-03-31 23:37:00,61.0,30.8,29.89,North,0,0.0,0.0,32,0.00,,,0.00,WUHU216HW,2013-04-01 06:37:00,